Time,TemperatureF,DewpointF,PressureIn,WindDirection,WindDirectionDegrees,WindSpeedMPH,WindSpeedGustMPH,Humidity,HourlyPrecipIn,Conditions,Clouds,dailyrainin,SolarRadiationWatts/m^2,SoftwareType,DateUTC
2013-02-09 00:01:00,27.9,22.2,29.46,ESE,122,0.0,2.0,79,0.00,,OVC012,0.00,0.00,VWS V14.01,2013-02-09 06:01:00,
2013-02-09 00:03:00,27.9,22.2,29.46,ESE,122,0.0,0.0,79,0.00,,OVC012,0.00,0.00,VWS V14.01,2013-02-09 06:03:00,
2013-02-09 00:04:00,27.9,22.2,29.46,ESE,107,1.0,2.0,79,0.00,,OVC012,0.00,0.00,VWS V14.01,2013-02-09 06:04:00,
2013-02-09 00:07:00,27.9,22.2,29.46,ESE,111,0.0,0.0,79,0.00,,OVC012,0.00,0.00,VWS V14.01,2013-02-09 06:07:00,
2013-02-09 00:10:00,27.9,22.2,29.46,ESE,110,0.0,0.0,79,0.00,,OVC012,0.00,0.00,VWS V14.01,2013-02-09 06:10:00,
2013-02-09 00:12:00,27.9,22.2,29.46,ESE,110,0.0,0.0,79,0.00,,OVC012,0.00,0.00,VWS V14.01,2013-02-09 06:12:00,
2013-02-09 00:13:00,27.9,22.2,29.46,SSE,167,1.0,1.0,79,0.00,,OVC012,0.00,0.00,VWS V14.01,2013-02-09 06:13:00,
2013-02-09 00:17:00,27.9,22.2,29.46,ESE,106,0.0,2.0,79,0.00,,OVC012,0.00,0.00,VWS V14.01,2013-02-09 06:17:00,
2013-02-09 00:18:00,27.9,22.2,29.46,ESE,106,0.0,1.0,79,0.00,,OVC012,0.00,0.00,VWS V14.01,2013-02-09 06:18:00,
2013-02-09 00:21:00,27.9,22.2,29.46,ESE,106,0.0,0.0,79,0.00,,OVC012,0.00,0.00,VWS V14.01,2013-02-09 06:21:00,
2013-02-09 00:23:00,27.9,22.2,29.46,ESE,106,0.0,0.0,79,0.00,,OVC012,0.00,0.00,VWS V14.01,2013-02-09 06:23:00,
2013-02-09 00:24:00,27.9,22.2,29.46,SE,142,0.0,2.0,79,0.00,,OVC012,0.00,0.00,VWS V14.01,2013-02-09 06:24:00,
2013-02-09 00:26:00,27.9,22.2,29.46,SE,142,0.0,0.0,79,0.00,,OVC012,0.00,0.00,VWS V14.01,2013-02-09 06:26:00,
2013-02-09 00:28:00,27.9,22.2,29.46,SE,141,0.0,0.0,79,0.00,,OVC012,0.00,0.00,VWS V14.01,2013-02-09 06:28:00,
2013-02-09 00:29:00,28.0,22.3,29.46,SE,141,0.0,0.0,79,0.00,,OVC012,0.00,0.00,VWS V14.01,2013-02-09 06:29:00,
2013-02-09 00:31:00,27.9,22.2,29.46,SE,142,1.0,1.0,79,0.00,,OVC012,0.00,0.00,VWS V14.01,2013-02-09 06:31:00,
2013-02-09 00:34:00,28.0,22.3,29.46,SE,142,0.0,1.0,79,0.00,,OVC012,0.00,0.00,VWS V14.01,2013-02-09 06:34:00,
2013-02-09 00:35:00,28.0,22.3,29.45,SE,142,0.0,0.0,79,0.00,,OVC012,0.00,0.00,VWS V14.01,2013-02-09 06:35:00,
2013-02-09 00:36:00,28.0,22.3,29.45,SE,142,0.0,1.0,79,0.00,,OVC012,0.00,0.00,VWS V14.01,2013-02-09 06:36:00,
2013-02-09 00:39:00,28.0,22.3,29.45,SE,142,0.0,1.0,79,0.00,,OVC012,0.00,0.00,VWS V14.01,2013-02-09 06:39:00,
2013-02-09 00:41:00,28.0,22.3,29.45,SE,141,1.0,1.0,79,0.00,,OVC012,0.00,0.00,VWS V14.01,2013-02-09 06:41:00,
2013-02-09 00:42:00,28.0,22.3,29.45,SE,141,0.0,1.0,79,0.00,,OVC012,0.00,0.00,VWS V14.01,2013-02-09 06:42:00,
2013-02-09 00:43:00,28.0,22.3,29.45,ESE,121,1.0,4.0,79,0.00,,OVC012,0.00,0.00,VWS V14.01,2013-02-09 06:43:00,
2013-02-09 00:46:00,28.0,22.3,29.46,SE,125,0.0,2.0,79,0.00,,OVC012,0.00,0.00,VWS V14.01,2013-02-09 06:46:00,
2013-02-09 00:47:00,28.0,22.3,29.46,SE,131,4.0,4.0,79,0.00,,OVC012,0.00,0.00,VWS V14.01,2013-02-09 06:47:00,
2013-02-09 00:51:00,28.1,22.4,29.45,SE,132,0.0,0.0,79,0.00,,OVC012,0.00,0.00,VWS V14.01,2013-02-09 06:51:00,
2013-02-09 00:52:00,28.1,22.4,29.45,SE,132,0.0,0.0,79,0.00,,OVC012,0.00,0.00,VWS V14.01,2013-02-09 06:52:00,
2013-02-09 00:57:00,28.1,22.4,29.45,ESE,112,0.0,0.0,79,0.00,,OVC012,0.00,0.00,VWS V14.01,2013-02-09 06:57:00,
2013-02-09 00:58:00,28.0,22.3,29.45,ESE,112,0.0,1.0,79,0.00,,OVC012,0.00,0.00,VWS V14.01,2013-02-09 06:58:00,
2013-02-09 00:59:00,28.0,22.3,29.45,ESE,112,0.0,1.0,79,0.00,,OVC012,0.00,0.00,VWS V14.01,2013-02-09 06:59:00,
2013-02-09 01:00:00,28.0,22.3,29.45,SSE,150,0.0,4.0,79,0.00,,OVC012,0.00,0.00,VWS V14.01,2013-02-09 07:00:00,
2013-02-09 01:03:00,28.1,22.7,29.45,ESE,111,0.0,4.0,80,0.00,,OVC014,0.00,0.00,VWS V14.01,2013-02-09 07:03:00,
2013-02-09 01:06:00,28.1,22.7,29.45,SE,142,0.0,0.0,80,0.00,,OVC014,0.00,0.00,VWS V14.01,2013-02-09 07:06:00,
2013-02-09 01:07:00,28.1,22.7,29.45,SE,142,0.0,0.0,80,0.00,,OVC014,0.00,0.00,VWS V14.01,2013-02-09 07:07:00,
2013-02-09 01:08:00,28.1,22.7,29.45,SE,142,2.0,2.0,80,0.00,,OVC014,0.00,0.00,VWS V14.01,2013-02-09 07:08:00,
2013-02-09 01:13:00,28.1,22.7,29.45,SE,142,0.0,1.0,80,0.00,,OVC014,0.00,0.00,VWS V14.01,2013-02-09 07:13:00,
2013-02-09 01:15:00,28.0,22.6,29.45,SE,142,1.0,1.0,80,0.00,,OVC014,0.00,0.00,VWS V14.01,2013-02-09 07:15:00,
2013-02-09 01:17:00,28.1,22.7,29.45,SE,142,0.0,0.0,80,0.00,,OVC014,0.00,0.00,VWS V14.01,2013-02-09 07:17:00,
2013-02-09 01:18:00,28.0,22.6,29.45,South,188,1.0,3.0,80,0.00,,OVC014,0.00,0.00,VWS V14.01,2013-02-09 07:18:00,
2013-02-09 01:20:00,28.1,22.7,29.45,SSE,158,0.0,2.0,80,0.00,,OVC014,0.00,0.00,VWS V14.01,2013-02-09 07:20:00,
2013-02-09 01:21:00,28.1,22.7,29.45,SSE,158,0.0,1.0,80,0.00,,OVC014,0.00,0.00,VWS V14.01,2013-02-09 07:21:00,
2013-02-09 01:23:00,28.0,22.6,29.45,SSE,157,0.0,0.0,80,0.00,,OVC014,0.00,0.00,VWS V14.01,2013-02-09 07:23:00,
2013-02-09 01:26:00,28.0,22.6,29.45,SSE,158,0.0,1.0,80,0.00,,OVC014,0.00,0.00,VWS V14.01,2013-02-09 07:26:00,
2013-02-09 01:27:00,28.0,22.6,29.45,SSE,158,0.0,0.0,80,0.00,,OVC014,0.00,0.00,VWS V14.01,2013-02-09 07:27:00,
2013-02-09 01:28:00,28.0,22.6,29.45,ESE,121,0.0,2.0,80,0.00,,OVC014,0.00,0.00,VWS V14.01,2013-02-09 07:28:00,
2013-02-09 01:32:00,28.0,22.6,29.45,SE,124,0.0,1.0,80,0.00,,OVC014,0.00,0.00,VWS V14.01,2013-02-09 07:32:00,
2013-02-09 01:35:00,28.1,22.7,29.45,SE,124,0.0,1.0,80,0.00,,OVC014,0.00,0.00,VWS V14.01,2013-02-09 07:35:00,
2013-02-09 01:36:00,28.1,22.7,29.45,ESE,123,0.0,0.0,80,0.00,,OVC014,0.00,0.00,VWS V14.01,2013-02-09 07:36:00,
2013-02-09 01:37:00,28.1,22.7,29.45,ESE,123,0.0,1.0,80,0.00,,OVC014,0.00,0.00,VWS V14.01,2013-02-09 07:37:00,
2013-02-09 01:42:00,28.0,22.6,29.46,SE,124,0.0,0.0,80,0.00,,OVC014,0.00,0.00,VWS V14.01,2013-02-09 07:42:00,
2013-02-09 01:45:00,28.0,22.6,29.46,SE,124,0.0,0.0,80,0.00,,OVC014,0.00,0.00,VWS V14.01,2013-02-09 07:45:00,
2013-02-09 01:49:00,28.0,22.6,29.46,ESE,123,0.0,1.0,80,0.00,,OVC014,0.00,0.00,VWS V14.01,2013-02-09 07:49:00,
2013-02-09 01:50:00,28.0,22.6,29.46,ESE,123,0.0,1.0,80,0.00,,OVC014,0.00,0.00,VWS V14.01,2013-02-09 07:50:00,
2013-02-09 01:51:00,28.0,22.6,29.46,ENE,68,2.0,2.0,80,0.00,,OVC014,0.00,0.00,VWS V14.01,2013-02-09 07:51:00,
2013-02-09 01:52:00,28.0,22.6,29.46,ENE,70,0.0,2.0,80,0.00,,OVC014,0.00,0.00,VWS V14.01,2013-02-09 07:52:00,
2013-02-09 01:56:00,28.0,22.6,29.46,ENE,70,0.0,0.0,80,0.00,,OVC014,0.00,0.00,VWS V14.01,2013-02-09 07:56:00,
2013-02-09 01:57:00,28.0,22.6,29.46,ENE,69,0.0,0.0,80,0.00,,OVC014,0.00,0.00,VWS V14.01,2013-02-09 07:57:00,
2013-02-09 01:58:00,28.0,22.6,29.46,ENE,69,0.0,0.0,80,0.00,,OVC014,0.00,0.00,VWS V14.01,2013-02-09 07:58:00,
2013-02-09 01:59:00,28.0,22.6,29.46,ENE,70,0.0,0.0,80,0.00,,OVC014,0.00,0.00,VWS V14.01,2013-02-09 07:59:00,
2013-02-09 02:03:00,27.9,22.5,29.46,South,176,0.0,0.0,80,0.00,,OVC014,0.00,0.00,VWS V14.01,2013-02-09 08:03:00,
2013-02-09 02:04:00,27.9,22.5,29.46,SSE,156,0.0,2.0,80,0.00,,OVC014,0.00,0.00,VWS V14.01,2013-02-09 08:04:00,
2013-02-09 02:05:00,27.9,22.5,29.46,SSE,156,0.0,1.0,80,0.00,,OVC014,0.00,0.00,VWS V14.01,2013-02-09 08:05:00,
2013-02-09 02:06:00,27.9,22.5,29.46,SSE,156,0.0,2.0,80,0.00,,OVC014,0.00,0.00,VWS V14.01,2013-02-09 08:06:00,
2013-02-09 02:09:00,27.9,22.5,29.46,East,98,1.0,1.0,80,0.00,,OVC014,0.00,0.00,VWS V14.01,2013-02-09 08:09:00,
2013-02-09 02:11:00,27.9,22.5,29.46,ESE,110,2.0,2.0,80,0.00,,OVC014,0.00,0.00,VWS V14.01,2013-02-09 08:11:00,
2013-02-09 02:13:00,27.9,22.5,29.46,ESE,110,0.0,1.0,80,0.00,,OVC014,0.00,0.00,VWS V14.01,2013-02-09 08:13:00,
2013-02-09 02:14:00,27.9,22.5,29.46,ESE,110,0.0,1.0,80,0.00,,OVC014,0.00,0.00,VWS V14.01,2013-02-09 08:14:00,
2013-02-09 02:15:00,27.9,22.5,29.46,ESE,110,0.0,1.0,80,0.00,,OVC014,0.00,0.00,VWS V14.01,2013-02-09 08:15:00,
2013-02-09 02:18:00,27.9,22.5,29.46,ESE,110,0.0,0.0,80,0.00,,OVC014,0.00,0.00,VWS V14.01,2013-02-09 08:18:00,
2013-02-09 02:20:00,28.0,22.6,29.45,ESE,110,0.0,1.0,80,0.00,,OVC014,0.00,0.00,VWS V14.01,2013-02-09 08:20:00,
2013-02-09 02:21:00,27.9,22.5,29.45,ESE,110,0.0,0.0,80,0.00,,OVC014,0.00,0.00,VWS V14.01,2013-02-09 08:21:00,
2013-02-09 02:23:00,27.9,22.5,29.45,ESE,110,0.0,0.0,80,0.00,,OVC014,0.00,0.00,VWS V14.01,2013-02-09 08:23:00,
2013-02-09 02:24:00,28.0,22.6,29.45,ESE,110,0.0,0.0,80,0.00,,OVC014,0.00,0.00,VWS V14.01,2013-02-09 08:24:00,
2013-02-09 02:27:00,28.0,22.6,29.45,East,88,1.0,5.0,80,0.00,,OVC014,0.00,0.00,VWS V14.01,2013-02-09 08:27:00,
2013-02-09 02:29:00,28.0,22.6,29.45,SE,133,0.0,4.0,80,0.00,,OVC014,0.00,0.00,VWS V14.01,2013-02-09 08:29:00,
2013-02-09 02:31:00,28.0,22.6,29.45,SE,133,0.0,0.0,80,0.00,,OVC014,0.00,0.00,VWS V14.01,2013-02-09 08:31:00,
2013-02-09 02:34:00,28.0,22.6,29.45,SE,133,0.0,1.0,80,0.00,,OVC014,0.00,0.00,VWS V14.01,2013-02-09 08:34:00,
2013-02-09 02:35:00,28.0,22.6,29.45,SE,133,0.0,1.0,80,0.00,,OVC014,0.00,0.00,VWS V14.01,2013-02-09 08:35:00,
2013-02-09 02:38:00,28.0,22.6,29.45,SE,133,0.0,1.0,80,0.00,,OVC014,0.00,0.00,VWS V14.01,2013-02-09 08:38:00,
2013-02-09 02:39:00,28.0,22.6,29.45,SE,133,0.0,2.0,80,0.00,,OVC014,0.00,0.00,VWS V14.01,2013-02-09 08:39:00,
2013-02-09 02:40:00,28.0,22.6,29.45,SE,133,0.0,0.0,80,0.00,,OVC014,0.00,0.00,VWS V14.01,2013-02-09 08:40:00,
2013-02-09 02:44:00,27.9,22.5,29.45,SE,136,4.0,4.0,80,0.00,,OVC014,0.00,0.00,VWS V14.01,2013-02-09 08:44:00,
2013-02-09 02:45:00,27.9,22.5,29.45,ESE,109,5.0,5.0,80,0.00,,OVC014,0.00,0.00,VWS V14.01,2013-02-09 08:45:00,
2013-02-09 02:46:00,27.9,22.5,29.45,ESE,121,2.0,7.0,80,0.00,,OVC014,0.00,0.00,VWS V14.01,2013-02-09 08:46:00,
2013-02-09 02:50:00,27.8,22.1,29.45,ESE,109,5.0,5.0,79,0.00,,OVC014,0.00,0.00,VWS V14.01,2013-02-09 08:50:00,
2013-02-09 02:51:00,27.8,22.1,29.45,SE,130,2.0,5.0,79,0.00,,OVC014,0.00,0.00,VWS V14.01,2013-02-09 08:51:00,
2013-02-09 02:52:00,27.8,22.1,29.44,ESE,118,1.0,2.0,79,0.00,,OVC014,0.00,0.00,VWS V14.01,2013-02-09 08:52:00,
2013-02-09 02:54:00,27.8,22.1,29.44,ESE,106,0.0,0.0,79,0.00,,OVC014,0.00,0.00,VWS V14.01,2013-02-09 08:54:00,
2013-02-09 02:56:00,27.8,22.1,29.44,SE,129,4.0,7.0,79,0.00,,OVC014,0.00,0.00,VWS V14.01,2013-02-09 08:56:00,
2013-02-09 02:57:00,27.8,22.1,29.44,SE,128,1.0,4.0,79,0.00,,OVC014,0.00,0.00,VWS V14.01,2013-02-09 08:57:00,
2013-02-09 02:59:00,27.8,22.1,29.44,ESE,117,1.0,4.0,79,0.00,,OVC014,0.00,0.00,VWS V14.01,2013-02-09 08:59:00,
2013-02-09 03:00:00,27.8,22.1,29.44,ESE,103,1.0,2.0,79,0.00,,OVC014,0.00,0.00,VWS V14.01,2013-02-09 09:00:00,
2013-02-09 03:03:00,27.8,22.1,29.44,ESE,123,2.0,5.0,79,0.00,,OVC014,0.00,0.00,VWS V14.01,2013-02-09 09:03:00,
2013-02-09 03:04:00,27.7,22.0,29.44,ESE,122,2.0,5.0,79,0.00,,OVC014,0.00,0.00,VWS V14.01,2013-02-09 09:04:00,
2013-02-09 03:06:00,27.7,22.0,29.45,SE,125,0.0,2.0,79,0.00,,OVC014,0.00,0.00,VWS V14.01,2013-02-09 09:06:00,
2013-02-09 03:09:00,27.7,21.8,29.45,ESE,121,1.0,2.0,78,0.00,,OVC014,0.00,0.00,VWS V14.01,2013-02-09 09:09:00,
2013-02-09 03:11:00,27.7,21.8,29.45,ESE,121,0.0,0.0,78,0.00,,OVC014,0.00,0.00,VWS V14.01,2013-02-09 09:11:00,
2013-02-09 03:12:00,27.7,21.8,29.45,ESE,113,2.0,2.0,78,0.00,,OVC014,0.00,0.00,VWS V14.01,2013-02-09 09:12:00,
2013-02-09 03:14:00,27.7,22.0,29.45,SE,132,0.0,4.0,79,0.00,,OVC014,0.00,0.00,VWS V14.01,2013-02-09 09:14:00,
2013-02-09 03:17:00,27.7,22.0,29.44,SSW,196,0.0,3.0,79,0.00,,OVC014,0.00,0.00,VWS V14.01,2013-02-09 09:17:00,
2013-02-09 03:20:00,27.7,22.0,29.44,ESE,116,1.0,2.0,79,0.00,,OVC014,0.00,0.00,VWS V14.01,2013-02-09 09:20:00,
2013-02-09 03:22:00,27.7,22.0,29.44,ESE,115,0.0,1.0,79,0.00,,OVC014,0.00,0.00,VWS V14.01,2013-02-09 09:22:00,
2013-02-09 03:25:00,27.7,22.0,29.44,ESE,121,1.0,2.0,79,0.00,,OVC014,0.00,0.00,VWS V14.01,2013-02-09 09:25:00,
2013-02-09 03:26:00,27.8,22.1,29.44,ESE,121,0.0,1.0,79,0.00,,OVC014,0.00,0.00,VWS V14.01,2013-02-09 09:26:00,
2013-02-09 03:27:00,27.8,22.1,29.44,ESE,121,0.0,0.0,79,0.00,,OVC014,0.00,0.00,VWS V14.01,2013-02-09 09:27:00,
2013-02-09 03:28:00,27.8,22.1,29.44,ESE,118,2.0,2.0,79,0.00,,OVC014,0.00,0.00,VWS V14.01,2013-02-09 09:28:00,
2013-02-09 03:31:00,27.8,22.1,29.44,ESE,108,4.0,4.0,79,0.00,,OVC014,0.00,0.00,VWS V14.01,2013-02-09 09:31:00,
2013-02-09 03:33:00,27.8,22.1,29.45,ESE,117,2.0,4.0,79,0.00,,OVC014,0.00,0.00,VWS V14.01,2013-02-09 09:33:00,
2013-02-09 03:37:00,27.8,22.1,29.45,SE,124,1.0,1.0,79,0.00,,OVC014,0.00,0.00,VWS V14.01,2013-02-09 09:37:00,
2013-02-09 03:38:00,27.8,22.1,29.45,SE,126,0.0,4.0,79,0.00,,OVC014,0.00,0.00,VWS V14.01,2013-02-09 09:38:00,
2013-02-09 03:40:00,27.8,22.1,29.45,SE,128,4.0,4.0,79,0.00,,OVC014,0.00,0.00,VWS V14.01,2013-02-09 09:40:00,
2013-02-09 03:42:00,27.8,22.1,29.45,SE,128,0.0,2.0,79,0.00,,OVC014,0.00,0.00,VWS V14.01,2013-02-09 09:42:00,
2013-02-09 03:43:00,27.8,22.1,29.45,SE,128,0.0,1.0,79,0.00,,OVC014,0.00,0.00,VWS V14.01,2013-02-09 09:43:00,
2013-02-09 03:44:00,27.8,22.1,29.45,SE,143,1.0,5.0,79,0.00,,OVC014,0.00,0.00,VWS V14.01,2013-02-09 09:44:00,
2013-02-09 03:46:00,27.8,21.9,29.45,ESE,110,0.0,2.0,78,0.00,,OVC014,0.00,0.00,VWS V14.01,2013-02-09 09:46:00,
2013-02-09 03:48:00,27.8,21.9,29.45,South,187,0.0,3.0,78,0.00,,OVC014,0.00,0.00,VWS V14.01,2013-02-09 09:48:00,
2013-02-09 03:52:00,27.8,21.9,29.45,SE,141,0.0,2.0,78,0.00,,OVC014,0.00,0.00,VWS V14.01,2013-02-09 09:52:00,
2013-02-09 03:53:00,27.8,21.9,29.45,ESE,120,1.0,4.0,78,0.00,,OVC014,0.00,0.00,VWS V14.01,2013-02-09 09:53:00,
2013-02-09 03:57:00,27.8,21.9,29.45,SE,136,2.0,2.0,78,0.00,,OVC014,0.00,0.00,VWS V14.01,2013-02-09 09:57:00,
2013-02-09 03:58:00,27.8,21.9,29.45,ESE,122,1.0,7.0,78,0.00,,OVC014,0.00,0.00,VWS V14.01,2013-02-09 09:58:00,
2013-02-09 03:59:00,27.8,21.9,29.45,SE,134,0.0,2.0,78,0.00,,OVC014,0.00,0.00,VWS V14.01,2013-02-09 09:59:00,
2013-02-09 04:00:00,27.8,21.9,29.45,SE,134,0.0,0.0,78,0.00,,OVC014,0.00,0.00,VWS V14.01,2013-02-09 10:00:00,
2013-02-09 04:03:00,27.9,21.9,29.45,SE,126,0.0,1.0,78,0.00,,OVC014,0.00,0.00,VWS V14.01,2013-02-09 10:03:00,
2013-02-09 04:05:00,27.9,21.9,29.45,SE,126,0.0,0.0,78,0.00,,OVC014,0.00,0.00,VWS V14.01,2013-02-09 10:05:00,
2013-02-09 04:06:00,27.9,21.9,29.45,SE,146,0.0,2.0,78,0.00,,OVC014,0.00,0.00,VWS V14.01,2013-02-09 10:06:00,
2013-02-09 04:07:00,27.9,21.9,29.45,SE,145,1.0,1.0,78,0.00,,OVC014,0.00,0.00,VWS V14.01,2013-02-09 10:07:00,
2013-02-09 04:12:00,27.9,21.9,29.45,South,181,3.0,4.0,78,0.00,,OVC014,0.00,0.00,VWS V14.01,2013-02-09 10:12:00,
2013-02-09 04:13:00,27.9,21.9,29.45,ESE,119,0.0,4.0,78,0.00,,OVC014,0.00,0.00,VWS V14.01,2013-02-09 10:13:00,
2013-02-09 04:15:00,27.9,21.9,29.45,ESE,113,0.0,6.0,78,0.00,,OVC014,0.00,0.00,VWS V14.01,2013-02-09 10:15:00,
2013-02-09 04:18:00,27.9,21.9,29.45,ENE,61,0.0,3.0,78,0.00,,OVC014,0.00,0.00,VWS V14.01,2013-02-09 10:18:00,
2013-02-09 04:19:00,27.9,21.9,29.45,ENE,61,0.0,0.0,78,0.00,,OVC014,0.00,0.00,VWS V14.01,2013-02-09 10:19:00,
2013-02-09 04:21:00,27.9,21.9,29.45,SE,140,4.0,4.0,78,0.00,,OVC014,0.00,0.00,VWS V14.01,2013-02-09 10:21:00,
2013-02-09 04:23:00,27.9,21.9,29.46,SE,140,0.0,1.0,78,0.00,,OVC014,0.00,0.00,VWS V14.01,2013-02-09 10:23:00,
2013-02-09 04:26:00,28.0,22.0,29.46,SE,140,0.0,1.0,78,0.00,,OVC014,0.00,0.00,VWS V14.01,2013-02-09 10:26:00,
2013-02-09 04:28:00,28.0,22.0,29.46,South,191,0.0,2.0,78,0.00,,OVC014,0.00,0.00,VWS V14.01,2013-02-09 10:28:00,
2013-02-09 04:29:00,28.0,22.0,29.46,South,191,1.0,2.0,78,0.00,,OVC014,0.00,0.00,VWS V14.01,2013-02-09 10:29:00,
2013-02-09 04:30:00,28.0,22.0,29.46,South,182,0.0,5.0,78,0.00,,OVC014,0.00,0.00,VWS V14.01,2013-02-09 10:30:00,
2013-02-09 04:33:00,28.0,22.0,29.46,SE,129,1.0,1.0,78,0.00,,OVC014,0.00,0.00,VWS V14.01,2013-02-09 10:33:00,
2013-02-09 04:34:00,28.0,22.0,29.45,SE,134,1.0,2.0,78,0.00,,OVC014,0.00,0.00,VWS V14.01,2013-02-09 10:34:00,
2013-02-09 04:38:00,28.0,22.0,29.45,ESE,109,0.0,1.0,78,0.00,,OVC014,0.00,0.00,VWS V14.01,2013-02-09 10:38:00,
2013-02-09 04:39:00,28.0,22.0,29.45,ESE,109,0.0,1.0,78,0.00,,OVC014,0.00,0.00,VWS V14.01,2013-02-09 10:39:00,
2013-02-09 04:40:00,28.0,22.0,29.45,ESE,109,0.0,0.0,78,0.00,,OVC014,0.00,0.00,VWS V14.01,2013-02-09 10:40:00,
2013-02-09 04:45:00,28.1,22.1,29.45,ESE,110,0.0,1.0,78,0.00,,OVC014,0.00,0.00,VWS V14.01,2013-02-09 10:45:00,
2013-02-09 04:48:00,28.1,22.1,29.45,ESE,110,0.0,0.0,78,0.00,,OVC014,0.00,0.00,VWS V14.01,2013-02-09 10:48:00,
2013-02-09 04:49:00,28.1,22.1,29.45,ESE,110,0.0,0.0,78,0.00,,OVC014,0.00,0.00,VWS V14.01,2013-02-09 10:49:00,
2013-02-09 04:51:00,28.1,22.4,29.45,SSW,194,1.0,4.0,79,0.00,,OVC014,0.00,0.00,VWS V14.01,2013-02-09 10:51:00,
2013-02-09 04:55:00,28.1,22.4,29.45,SSW,195,0.0,4.0,79,0.00,,OVC014,0.00,0.00,VWS V14.01,2013-02-09 10:55:00,
2013-02-09 04:57:00,28.1,22.4,29.45,ESE,121,2.0,5.0,79,0.00,,OVC014,0.00,0.00,VWS V14.01,2013-02-09 10:57:00,
2013-02-09 04:58:00,28.1,22.4,29.45,ESE,122,0.0,2.0,79,0.00,,OVC014,0.00,0.00,VWS V14.01,2013-02-09 10:58:00,
2013-02-09 05:01:00,28.1,22.4,29.45,ESE,103,1.0,2.0,79,0.00,,OVC014,0.00,0.00,VWS V14.01,2013-02-09 11:01:00,
2013-02-09 05:03:00,28.1,22.4,29.45,ESE,103,0.0,1.0,79,0.00,,OVC014,0.00,0.00,VWS V14.01,2013-02-09 11:03:00,
2013-02-09 05:04:00,28.1,22.4,29.45,ESE,111,1.0,2.0,79,0.00,,OVC014,0.00,0.00,VWS V14.01,2013-02-09 11:04:00,
2013-02-09 05:08:00,28.1,22.4,29.44,SE,126,1.0,4.0,79,0.00,,OVC014,0.00,0.00,VWS V14.01,2013-02-09 11:08:00,
2013-02-09 05:10:00,28.2,22.5,29.44,East,95,0.0,1.0,79,0.00,,OVC014,0.00,0.00,VWS V14.01,2013-02-09 11:10:00,
2013-02-09 05:13:00,28.2,22.5,29.44,SE,137,1.0,6.0,79,0.00,,OVC014,0.00,0.00,VWS V14.01,2013-02-09 11:13:00,
2013-02-09 05:15:00,28.1,22.4,29.44,SE,137,0.0,0.0,79,0.00,,OVC014,0.00,0.00,VWS V14.01,2013-02-09 11:15:00,
2013-02-09 05:17:00,28.1,22.4,29.44,ESE,121,0.0,2.0,79,0.00,,OVC014,0.00,0.00,VWS V14.01,2013-02-09 11:17:00,
2013-02-09 05:19:00,28.2,22.5,29.44,ESE,111,4.0,4.0,79,0.00,,OVC014,0.00,0.00,VWS V14.01,2013-02-09 11:19:00,
2013-02-09 05:22:00,28.2,22.5,29.45,ESE,122,0.0,4.0,79,0.00,,OVC014,0.00,0.00,VWS V14.01,2013-02-09 11:22:00,
2013-02-09 05:23:00,28.1,22.4,29.44,ESE,122,0.0,0.0,79,0.00,,OVC014,0.00,0.00,VWS V14.01,2013-02-09 11:23:00,
2013-02-09 05:25:00,28.1,22.4,29.45,SSW,194,2.0,2.0,79,0.00,,OVC014,0.00,0.00,VWS V14.01,2013-02-09 11:25:00,
2013-02-09 05:27:00,28.1,22.4,29.45,ESE,122,1.0,6.0,79,0.00,,OVC014,0.00,0.00,VWS V14.01,2013-02-09 11:27:00,
2013-02-09 05:29:00,28.1,22.4,29.45,East,99,0.0,1.0,79,0.00,,OVC014,0.00,0.00,VWS V14.01,2013-02-09 11:29:00,
2013-02-09 05:31:00,28.1,22.4,29.45,East,87,0.0,1.0,79,0.00,,OVC014,0.00,0.00,VWS V14.01,2013-02-09 11:31:00,
2013-02-09 05:35:00,28.1,22.4,29.45,ESE,114,0.0,2.0,79,0.00,,OVC014,0.00,0.00,VWS V14.01,2013-02-09 11:35:00,
2013-02-09 05:36:00,28.1,22.4,29.45,ESE,114,0.0,0.0,79,0.00,,OVC014,0.00,0.00,VWS V14.01,2013-02-09 11:36:00,
2013-02-09 05:38:00,28.1,22.4,29.45,ESE,114,0.0,1.0,79,0.00,,OVC014,0.00,0.00,VWS V14.01,2013-02-09 11:38:00,
2013-02-09 05:39:00,28.1,22.4,29.45,ESE,114,1.0,1.0,79,0.00,,OVC014,0.00,0.00,VWS V14.01,2013-02-09 11:39:00,
2013-02-09 05:42:00,28.1,22.4,29.45,ESE,117,0.0,4.0,79,0.00,,OVC014,0.00,0.00,VWS V14.01,2013-02-09 11:42:00,
2013-02-09 05:43:00,28.1,22.4,29.45,ESE,117,0.0,0.0,79,0.00,,OVC014,0.00,0.00,VWS V14.01,2013-02-09 11:43:00,
2013-02-09 05:44:00,28.1,22.4,29.44,ESE,117,0.0,1.0,79,0.00,,OVC014,0.00,0.00,VWS V14.01,2013-02-09 11:44:00,
2013-02-09 05:45:00,28.1,22.4,29.44,ESE,117,0.0,1.0,79,0.00,,OVC014,0.00,0.00,VWS V14.01,2013-02-09 11:45:00,
2013-02-09 05:48:00,28.1,22.4,29.44,ESE,121,0.0,1.0,79,0.00,,OVC014,0.00,0.00,VWS V14.01,2013-02-09 11:48:00,
2013-02-09 05:49:00,28.1,22.4,29.44,ESE,121,0.0,0.0,79,0.00,,OVC014,0.00,0.00,VWS V14.01,2013-02-09 11:49:00,
2013-02-09 05:52:00,28.1,22.4,29.44,SE,125,2.0,2.0,79,0.00,,OVC014,0.00,0.00,VWS V14.01,2013-02-09 11:52:00,
2013-02-09 05:53:00,28.1,22.4,29.44,SE,128,1.0,4.0,79,0.00,,OVC014,0.00,0.00,VWS V14.01,2013-02-09 11:53:00,
2013-02-09 05:54:00,28.1,22.4,29.44,SE,128,0.0,2.0,79,0.00,,OVC014,0.00,0.00,VWS V14.01,2013-02-09 11:54:00,
2013-02-09 05:56:00,28.1,22.4,29.44,ESE,123,0.0,4.0,79,0.00,,OVC014,0.00,0.00,VWS V14.01,2013-02-09 11:56:00,
2013-02-09 05:59:00,28.1,22.4,29.44,SE,144,1.0,4.0,79,0.00,,OVC014,0.00,0.00,VWS V14.01,2013-02-09 11:59:00,
2013-02-09 06:00:00,28.1,22.4,29.44,SE,125,2.0,4.0,79,0.00,,OVC014,0.00,0.00,VWS V14.01,2013-02-09 12:00:00,
2013-02-09 06:01:00,28.1,22.4,29.44,SE,127,1.0,5.0,79,0.00,,OVC014,0.00,0.00,VWS V14.01,2013-02-09 12:01:00,
2013-02-09 06:05:00,28.1,22.4,29.44,East,90,0.0,1.0,79,0.00,,OVC014,0.00,0.00,VWS V14.01,2013-02-09 12:05:00,
2013-02-09 06:06:00,28.1,22.4,29.44,SW,233,1.0,1.0,79,0.00,,OVC014,0.00,0.00,VWS V14.01,2013-02-09 12:06:00,
2013-02-09 06:10:00,28.2,22.8,29.44,SE,145,0.0,1.0,80,0.00,,OVC014,0.00,0.00,VWS V14.01,2013-02-09 12:10:00,
2013-02-09 06:11:00,28.1,22.7,29.44,ESE,107,2.0,2.0,80,0.00,,OVC014,0.00,0.00,VWS V14.01,2013-02-09 12:11:00,
2013-02-09 06:14:00,28.2,22.8,29.44,ESE,121,0.0,5.0,80,0.00,,OVC014,0.00,0.00,VWS V14.01,2013-02-09 12:14:00,
2013-02-09 06:15:00,28.2,22.8,29.44,ESE,118,5.0,5.0,80,0.00,,OVC014,0.00,0.00,VWS V14.01,2013-02-09 12:15:00,
2013-02-09 06:18:00,28.1,22.4,29.44,ESE,115,0.0,2.0,79,0.00,,OVC014,0.00,0.00,VWS V14.01,2013-02-09 12:18:00,
2013-02-09 06:19:00,28.1,22.4,29.44,SSE,157,0.0,2.0,79,0.00,,OVC014,0.00,0.00,VWS V14.01,2013-02-09 12:19:00,
2013-02-09 06:20:00,28.1,22.4,29.44,SE,137,1.0,5.0,79,0.00,,OVC014,0.00,0.00,VWS V14.01,2013-02-09 12:20:00,
2013-02-09 06:21:00,28.1,22.4,29.44,ESE,114,2.0,2.0,79,0.00,,OVC014,0.00,0.00,VWS V14.01,2013-02-09 12:21:00,
2013-02-09 06:26:00,28.1,22.4,29.44,ESE,105,0.0,3.0,79,0.00,,OVC014,0.00,0.00,VWS V14.01,2013-02-09 12:26:00,
2013-02-09 06:28:00,28.1,22.4,29.44,SE,128,0.0,4.0,79,0.00,,OVC014,0.00,0.00,VWS V14.01,2013-02-09 12:28:00,
2013-02-09 06:29:00,28.1,22.4,29.44,ESE,109,2.0,2.0,79,0.00,,OVC014,0.00,0.00,VWS V14.01,2013-02-09 12:29:00,
2013-02-09 06:32:00,28.1,22.4,29.44,ESE,110,0.0,1.0,79,0.00,,OVC014,0.00,0.00,VWS V14.01,2013-02-09 12:32:00,
2013-02-09 06:33:00,28.1,22.4,29.44,ESE,110,2.0,3.0,79,0.00,,OVC014,0.00,0.00,VWS V14.01,2013-02-09 12:33:00,
2013-02-09 06:34:00,28.1,22.4,29.44,East,89,1.0,7.0,79,0.00,,OVC014,0.00,0.00,VWS V14.01,2013-02-09 12:34:00,
2013-02-09 06:38:00,28.2,22.5,29.44,SE,134,0.0,4.0,79,0.00,,OVC014,0.00,0.00,VWS V14.01,2013-02-09 12:38:00,
2013-02-09 06:41:00,28.2,22.5,29.44,ESE,123,0.0,1.0,79,0.00,,OVC014,0.00,0.00,VWS V14.01,2013-02-09 12:41:00,
2013-02-09 06:43:00,28.2,22.5,29.44,SE,128,0.0,4.0,79,0.00,,OVC014,0.00,0.00,VWS V14.01,2013-02-09 12:43:00,
2013-02-09 06:46:00,28.2,22.5,29.44,ESE,115,2.0,2.0,79,0.00,,OVC014,0.00,0.00,VWS V14.01,2013-02-09 12:46:00,
2013-02-09 06:47:00,28.2,22.5,29.44,SE,140,2.0,4.0,79,0.00,,OVC014,0.00,0.00,VWS V14.01,2013-02-09 12:47:00,
2013-02-09 06:48:00,28.3,22.6,29.44,ESE,115,1.0,6.0,79,0.00,,OVC014,0.00,0.00,VWS V14.01,2013-02-09 12:48:00,
2013-02-09 06:49:00,28.3,22.6,29.44,ESE,121,0.0,2.0,79,0.00,,OVC014,0.00,0.00,VWS V14.01,2013-02-09 12:49:00,
2013-02-09 06:52:00,28.3,22.6,29.44,ESE,113,1.0,1.0,79,0.00,,OVC014,0.00,0.00,VWS V14.01,2013-02-09 12:52:00,
2013-02-09 06:53:00,28.3,22.6,29.44,ESE,123,1.0,4.0,79,0.00,,OVC014,0.00,0.00,VWS V14.01,2013-02-09 12:53:00,
2013-02-09 06:55:00,28.2,22.5,29.44,SE,135,0.0,3.0,79,0.00,,OVC014,0.00,0.00,VWS V14.01,2013-02-09 12:55:00,
2013-02-09 06:57:00,28.3,22.6,29.44,ESE,113,4.0,4.0,79,0.00,,OVC014,0.00,0.00,VWS V14.01,2013-02-09 12:57:00,
2013-02-09 06:59:00,28.3,22.6,29.44,ESE,121,5.0,7.0,79,0.00,,OVC014,0.00,0.00,VWS V14.01,2013-02-09 12:59:00,
2013-02-09 07:02:00,28.2,22.5,29.43,SE,134,0.0,1.0,79,0.00,,OVC014,0.00,0.00,VWS V14.01,2013-02-09 13:02:00,
2013-02-09 07:03:00,28.3,22.6,29.43,SSE,165,0.0,1.0,79,0.00,,OVC014,0.00,0.00,VWS V14.01,2013-02-09 13:03:00,
2013-02-09 07:05:00,28.2,22.5,29.43,SE,126,6.0,7.0,79,0.00,,OVC014,0.00,5.00,VWS V14.01,2013-02-09 13:05:00,
2013-02-09 07:06:00,28.2,22.5,29.43,SE,126,1.0,6.0,79,0.00,,OVC014,0.00,5.00,VWS V14.01,2013-02-09 13:06:00,
2013-02-09 07:08:00,28.2,22.5,29.44,SE,128,0.0,7.0,79,0.00,,OVC014,0.00,5.00,VWS V14.01,2013-02-09 13:08:00,
2013-02-09 07:11:00,28.2,22.5,29.44,South,169,1.0,4.0,79,0.00,,OVC014,0.00,7.00,VWS V14.01,2013-02-09 13:11:00,
2013-02-09 07:12:00,28.2,22.5,29.44,ESE,110,0.0,4.0,79,0.00,,OVC014,0.00,9.00,VWS V14.01,2013-02-09 13:12:00,
2013-02-09 07:13:00,28.2,22.5,29.44,SE,145,1.0,2.0,79,0.00,,OVC014,0.00,11.00,VWS V14.01,2013-02-09 13:13:00,
2013-02-09 07:16:00,28.3,22.6,29.44,SE,130,1.0,2.0,79,0.00,,OVC014,0.00,12.00,VWS V14.01,2013-02-09 13:16:00,
2013-02-09 07:17:00,28.3,22.6,29.44,ESE,109,2.0,4.0,79,0.00,,OVC014,0.00,12.00,VWS V14.01,2013-02-09 13:17:00,
2013-02-09 07:18:00,28.3,22.6,29.44,ESE,120,0.0,2.0,79,0.00,,OVC014,0.00,14.00,VWS V14.01,2013-02-09 13:18:00,
2013-02-09 07:22:00,28.3,22.6,29.43,ESE,118,6.0,7.0,79,0.00,,OVC014,0.00,16.00,VWS V14.01,2013-02-09 13:22:00,
2013-02-09 07:25:00,28.3,22.6,29.44,ESE,109,1.0,6.0,79,0.00,,OVC014,0.00,21.00,VWS V14.01,2013-02-09 13:25:00,
2013-02-09 07:27:00,28.4,22.7,29.44,East,92,1.0,5.0,79,0.00,,OVC014,0.00,19.00,VWS V14.01,2013-02-09 13:27:00,
2013-02-09 07:28:00,28.4,22.7,29.44,SE,137,2.0,4.0,79,0.00,,OVC014,0.00,19.00,VWS V14.01,2013-02-09 13:28:00,
2013-02-09 07:32:00,28.4,22.7,29.44,SE,129,2.0,5.0,79,0.00,,OVC014,0.00,21.00,VWS V14.01,2013-02-09 13:32:00,
2013-02-09 07:33:00,28.4,22.7,29.44,SSE,155,0.0,8.0,79,0.00,,OVC014,0.00,21.00,VWS V14.01,2013-02-09 13:33:00,
2013-02-09 07:38:00,28.5,22.8,29.44,ESE,107,2.0,5.0,79,0.00,,OVC014,0.00,21.00,VWS V14.01,2013-02-09 13:38:00,
2013-02-09 07:39:00,28.5,22.8,29.44,ESE,117,2.0,2.0,79,0.00,,OVC014,0.00,23.00,VWS V14.01,2013-02-09 13:39:00,
2013-02-09 07:40:00,28.5,22.8,29.44,SE,133,1.0,2.0,79,0.00,,OVC014,0.00,23.00,VWS V14.01,2013-02-09 13:40:00,
2013-02-09 07:43:00,28.5,22.8,29.45,South,179,5.0,6.0,79,0.00,,OVC014,0.00,26.00,VWS V14.01,2013-02-09 13:43:00,
2013-02-09 07:45:00,28.5,22.5,29.44,SE,124,1.0,6.0,78,0.00,,OVC014,0.00,26.00,VWS V14.01,2013-02-09 13:45:00,
2013-02-09 07:48:00,28.5,22.5,29.44,ESE,118,1.0,7.0,78,0.00,,OVC014,0.00,32.00,VWS V14.01,2013-02-09 13:48:00,
2013-02-09 07:49:00,28.5,22.5,29.44,ESE,112,4.0,4.0,78,0.00,,OVC014,0.00,32.00,VWS V14.01,2013-02-09 13:49:00,
2013-02-09 07:50:00,28.5,22.5,29.44,SE,128,4.0,7.0,78,0.00,,OVC014,0.00,32.00,VWS V14.01,2013-02-09 13:50:00,
2013-02-09 07:53:00,28.5,22.5,29.44,SE,138,0.0,1.0,78,0.00,,OVC014,0.00,37.00,VWS V14.01,2013-02-09 13:53:00,
2013-02-09 07:55:00,28.5,22.5,29.44,ESE,111,0.0,2.0,78,0.00,,OVC014,0.00,37.00,VWS V14.01,2013-02-09 13:55:00,
2013-02-09 07:57:00,28.5,22.8,29.44,SE,135,1.0,3.0,79,0.00,,OVC014,0.00,35.00,VWS V14.01,2013-02-09 13:57:00,
2013-02-09 07:58:00,28.6,22.9,29.44,SE,125,0.0,1.0,79,0.00,,OVC014,0.00,37.00,VWS V14.01,2013-02-09 13:58:00,
2013-02-09 08:01:00,28.6,22.9,29.44,SSE,147,0.0,2.0,79,0.00,,OVC014,0.00,37.00,VWS V14.01,2013-02-09 14:01:00,
2013-02-09 08:02:00,28.7,22.7,29.45,ESE,111,0.0,2.0,78,0.00,,OVC014,0.00,37.00,VWS V14.01,2013-02-09 14:02:00,
2013-02-09 08:04:00,28.7,22.7,29.44,SE,142,0.0,1.0,78,0.00,,OVC014,0.00,35.00,VWS V14.01,2013-02-09 14:04:00,
2013-02-09 08:05:00,28.7,22.7,29.44,NNW,345,0.0,4.0,78,0.00,,OVC014,0.00,39.00,VWS V14.01,2013-02-09 14:05:00,
2013-02-09 08:07:00,28.7,22.7,29.44,SE,128,0.0,2.0,78,0.00,,OVC014,0.00,37.00,VWS V14.01,2013-02-09 14:07:00,
2013-02-09 08:08:00,28.7,22.7,29.44,SE,134,0.0,1.0,78,0.00,,OVC014,0.00,39.00,VWS V14.01,2013-02-09 14:08:00,
2013-02-09 08:09:00,28.7,22.7,29.44,ESE,115,2.0,6.0,78,0.00,,OVC014,0.00,39.00,VWS V14.01,2013-02-09 14:09:00,
2013-02-09 08:13:00,28.7,22.7,29.45,ESE,122,0.0,1.0,78,0.00,,OVC014,0.00,40.00,VWS V14.01,2013-02-09 14:13:00,
2013-02-09 08:14:00,28.8,22.8,29.45,ESE,122,0.0,1.0,78,0.00,,OVC014,0.00,40.00,VWS V14.01,2013-02-09 14:14:00,
2013-02-09 08:18:00,28.8,22.8,29.44,ESE,106,5.0,5.0,78,0.00,,OVC014,0.00,42.00,VWS V14.01,2013-02-09 14:18:00,
2013-02-09 08:20:00,28.8,22.8,29.45,SE,139,0.0,2.0,78,0.00,,OVC014,0.00,39.00,VWS V14.01,2013-02-09 14:20:00,
2013-02-09 08:21:00,28.8,22.8,29.45,SE,139,0.0,1.0,78,0.00,,OVC014,0.00,46.00,VWS V14.01,2013-02-09 14:21:00,
2013-02-09 08:23:00,28.8,22.8,29.45,SE,125,0.0,2.0,78,0.00,,OVC014,0.00,44.00,VWS V14.01,2013-02-09 14:23:00,
2013-02-09 08:25:00,28.8,22.8,29.45,ESE,116,0.0,5.0,78,0.00,,OVC014,0.00,44.00,VWS V14.01,2013-02-09 14:25:00,
2013-02-09 08:26:00,28.8,22.8,29.45,ESE,117,1.0,4.0,78,0.00,,OVC014,0.00,46.00,VWS V14.01,2013-02-09 14:26:00,
2013-02-09 08:29:00,28.8,22.8,29.45,ESE,116,0.0,1.0,78,0.00,,OVC014,0.00,37.00,VWS V14.01,2013-02-09 14:29:00,
2013-02-09 08:30:00,28.9,22.9,29.45,ESE,109,1.0,7.0,78,0.00,,OVC014,0.00,40.00,VWS V14.01,2013-02-09 14:30:00,
2013-02-09 08:31:00,28.9,22.9,29.45,ESE,109,0.0,2.0,78,0.00,,OVC014,0.00,44.00,VWS V14.01,2013-02-09 14:31:00,
2013-02-09 08:34:00,28.9,22.9,29.44,ESE,105,1.0,1.0,78,0.00,,OVC014,0.00,47.00,VWS V14.01,2013-02-09 14:34:00,
2013-02-09 08:37:00,29.0,23.0,29.44,ESE,123,2.0,4.0,78,0.00,,OVC014,0.00,51.00,VWS V14.01,2013-02-09 14:37:00,
2013-02-09 08:40:00,29.0,23.0,29.44,SSE,149,0.0,5.0,78,0.00,,OVC014,0.00,63.00,VWS V14.01,2013-02-09 14:40:00,
2013-02-09 08:42:00,29.0,23.0,29.44,SSE,165,0.0,2.0,78,0.00,,OVC014,0.00,69.00,VWS V14.01,2013-02-09 14:42:00,
2013-02-09 08:44:00,29.0,23.0,29.44,ESE,108,4.0,4.0,78,0.00,,OVC014,0.00,72.00,VWS V14.01,2013-02-09 14:44:00,
2013-02-09 08:45:00,29.0,23.0,29.44,East,92,0.0,6.0,78,0.00,,OVC014,0.00,74.00,VWS V14.01,2013-02-09 14:45:00,
2013-02-09 08:49:00,29.0,23.0,29.44,SE,128,2.0,2.0,78,0.00,,OVC014,0.00,67.00,VWS V14.01,2013-02-09 14:49:00,
2013-02-09 08:51:00,29.1,23.1,29.44,SE,128,0.0,0.0,78,0.00,,OVC014,0.00,77.00,VWS V14.01,2013-02-09 14:51:00,
2013-02-09 08:53:00,29.1,23.1,29.44,East,101,1.0,1.0,78,0.00,,OVC014,0.00,84.00,VWS V14.01,2013-02-09 14:53:00,
2013-02-09 08:54:00,29.1,23.1,29.44,SE,126,5.0,5.0,78,0.00,,OVC014,0.00,86.00,VWS V14.01,2013-02-09 14:54:00,
2013-02-09 08:58:00,29.1,23.1,29.44,SSE,164,0.0,5.0,78,0.00,,OVC014,0.00,100.00,VWS V14.01,2013-02-09 14:58:00,
2013-02-09 09:00:00,29.1,23.1,29.44,ESE,111,0.0,4.0,78,0.00,,OVC014,0.00,91.00,VWS V14.01,2013-02-09 15:00:00,
2013-02-09 09:01:00,29.1,23.1,29.44,ESE,119,1.0,2.0,78,0.00,,OVC014,0.00,84.00,VWS V14.01,2013-02-09 15:01:00,
2013-02-09 09:03:00,29.1,23.1,29.44,SE,142,1.0,2.0,78,0.00,,OVC014,0.00,86.00,VWS V14.01,2013-02-09 15:03:00,
2013-02-09 09:05:00,29.1,23.1,29.44,ESE,105,0.0,5.0,78,0.00,,OVC014,0.00,84.00,VWS V14.01,2013-02-09 15:05:00,
2013-02-09 09:08:00,29.2,23.2,29.44,SSW,198,3.0,6.0,78,0.00,,OVC014,0.00,86.00,VWS V14.01,2013-02-09 15:08:00,
2013-02-09 09:11:00,29.2,23.2,29.44,SSE,155,0.0,1.0,78,0.00,,OVC014,0.00,88.00,VWS V14.01,2013-02-09 15:11:00,
2013-02-09 09:12:00,29.2,23.2,29.44,ESE,103,4.0,5.0,78,0.00,,OVC014,0.00,91.00,VWS V14.01,2013-02-09 15:12:00,
2013-02-09 09:13:00,29.3,23.3,29.44,SSW,193,0.0,4.0,78,0.00,,OVC014,0.00,93.00,VWS V14.01,2013-02-09 15:13:00,
2013-02-09 09:16:00,29.3,23.3,29.45,SE,128,1.0,1.0,78,0.00,,OVC014,0.00,88.00,VWS V14.01,2013-02-09 15:16:00,
2013-02-09 09:18:00,29.3,23.3,29.44,ESE,117,2.0,6.0,78,0.00,,OVC014,0.00,91.00,VWS V14.01,2013-02-09 15:18:00,
2013-02-09 09:20:00,29.3,23.3,29.44,ESE,109,1.0,7.0,78,0.00,,OVC014,0.00,90.00,VWS V14.01,2013-02-09 15:20:00,
2013-02-09 09:22:00,29.3,23.0,29.44,SE,137,4.0,6.0,77,0.00,,OVC014,0.00,91.00,VWS V14.01,2013-02-09 15:22:00,
2013-02-09 09:25:00,29.3,23.3,29.44,SE,127,0.0,8.0,78,0.00,,OVC014,0.00,97.00,VWS V14.01,2013-02-09 15:25:00,
2013-02-09 09:27:00,29.3,23.3,29.44,South,189,3.0,4.0,78,0.00,,OVC014,0.00,97.00,VWS V14.01,2013-02-09 15:27:00,
2013-02-09 09:29:00,29.3,23.3,29.43,ESE,108,2.0,4.0,78,0.00,,OVC014,0.00,105.00,VWS V14.01,2013-02-09 15:29:00,
2013-02-09 09:32:00,29.4,23.4,29.44,ESE,114,0.0,4.0,78,0.00,,OVC014,0.00,95.00,VWS V14.01,2013-02-09 15:32:00,
2013-02-09 09:35:00,29.4,23.1,29.44,South,188,6.0,6.0,77,0.00,,OVC014,0.00,97.00,VWS V14.01,2013-02-09 15:35:00,
2013-02-09 09:36:00,29.4,23.1,29.44,SE,132,0.0,6.0,77,0.00,,OVC014,0.00,95.00,VWS V14.01,2013-02-09 15:36:00,
2013-02-09 09:37:00,29.5,23.2,29.44,ESE,114,2.0,4.0,77,0.00,,OVC014,0.00,97.00,VWS V14.01,2013-02-09 15:37:00,
2013-02-09 09:39:00,29.5,23.2,29.44,SSE,163,5.0,6.0,77,0.00,,OVC014,0.00,95.00,VWS V14.01,2013-02-09 15:39:00,
2013-02-09 09:41:00,29.5,23.2,29.44,SE,145,1.0,6.0,77,0.00,,OVC014,0.00,97.00,VWS V14.01,2013-02-09 15:41:00,
2013-02-09 09:44:00,29.6,23.6,29.44,SE,135,1.0,1.0,78,0.00,,OVC014,0.00,105.00,VWS V14.01,2013-02-09 15:44:00,
2013-02-09 09:46:00,29.6,23.3,29.44,ESE,123,0.0,2.0,77,0.00,,OVC014,0.00,109.00,VWS V14.01,2013-02-09 15:46:00,
2013-02-09 09:50:00,29.7,23.4,29.45,ESE,106,0.0,1.0,77,0.00,,OVC014,0.00,95.00,VWS V14.01,2013-02-09 15:50:00,
2013-02-09 09:54:00,29.8,23.5,29.44,SE,126,1.0,2.0,77,0.00,,OVC014,0.00,91.00,VWS V14.01,2013-02-09 15:54:00,
2013-02-09 09:55:00,29.8,23.5,29.45,ESE,119,1.0,1.0,77,0.00,,OVC014,0.00,98.00,VWS V14.01,2013-02-09 15:55:00,
2013-02-09 09:58:00,29.9,23.9,29.45,ESE,115,0.0,1.0,78,0.00,,OVC014,0.00,98.00,VWS V14.01,2013-02-09 15:58:00,
2013-02-09 10:00:00,29.9,23.9,29.45,ESE,115,0.0,2.0,78,0.00,,OVC014,0.00,93.00,VWS V14.01,2013-02-09 16:00:00,
2013-02-09 10:01:00,29.9,23.9,29.45,SSW,192,0.0,5.0,78,0.00,,OVC014,0.00,91.00,VWS V14.01,2013-02-09 16:01:00,
2013-02-09 10:06:00,30.0,24.0,29.44,ENE,78,1.0,7.0,78,0.00,,OVC014,0.00,88.00,VWS V14.01,2013-02-09 16:06:00,
2013-02-09 10:09:00,30.0,24.0,29.44,SE,140,5.0,9.0,78,0.00,,OVC014,0.00,102.00,VWS V14.01,2013-02-09 16:09:00,
2013-02-09 10:12:00,30.0,24.0,29.44,ESE,115,2.0,8.0,78,0.00,,OVC014,0.00,113.00,VWS V14.01,2013-02-09 16:12:00,
2013-02-09 10:14:00,30.0,24.0,29.44,SE,131,4.0,7.0,78,0.00,,OVC014,0.00,137.00,VWS V14.01,2013-02-09 16:14:00,
2013-02-09 10:16:00,30.0,23.7,29.44,SE,137,2.0,2.0,77,0.00,,OVC014,0.00,146.00,VWS V14.01,2013-02-09 16:16:00,
2013-02-09 10:18:00,30.0,24.0,29.44,SSE,159,0.0,2.0,78,0.00,,OVC014,0.00,144.00,VWS V14.01,2013-02-09 16:18:00,
2013-02-09 10:20:00,30.0,23.7,29.44,ESE,123,5.0,7.0,77,0.00,,OVC014,0.00,125.00,VWS V14.01,2013-02-09 16:20:00,
2013-02-09 10:21:00,30.0,23.7,29.44,SSW,205,3.0,5.0,77,0.00,,OVC014,0.00,123.00,VWS V14.01,2013-02-09 16:21:00,
2013-02-09 10:23:00,30.1,23.8,29.44,ESE,115,4.0,4.0,77,0.00,,OVC014,0.00,123.00,VWS V14.01,2013-02-09 16:23:00,
2013-02-09 10:24:00,30.0,23.7,29.44,ESE,118,0.0,4.0,77,0.00,,OVC014,0.00,125.00,VWS V14.01,2013-02-09 16:24:00,
2013-02-09 10:27:00,30.0,23.7,29.44,ESE,121,0.0,5.0,77,0.00,,OVC014,0.00,123.00,VWS V14.01,2013-02-09 16:27:00,
2013-02-09 10:28:00,30.1,23.8,29.44,SW,218,0.0,3.0,77,0.00,,OVC014,0.00,123.00,VWS V14.01,2013-02-09 16:28:00,
2013-02-09 10:30:00,30.1,23.8,29.44,ESE,121,1.0,1.0,77,0.00,,OVC014,0.00,113.00,VWS V14.01,2013-02-09 16:30:00,
2013-02-09 10:33:00,30.2,23.9,29.43,SE,134,0.0,4.0,77,0.00,,OVC014,0.00,132.00,VWS V14.01,2013-02-09 16:33:00,
2013-02-09 10:36:00,30.3,24.0,29.43,East,95,1.0,5.0,77,0.00,,OVC014,0.00,127.00,VWS V14.01,2013-02-09 16:36:00,
2013-02-09 10:37:00,30.3,24.0,29.43,ESE,113,4.0,6.0,77,0.00,,OVC014,0.00,130.00,VWS V14.01,2013-02-09 16:37:00,
2013-02-09 10:41:00,30.4,24.4,29.43,South,191,1.0,2.0,78,0.00,,OVC014,0.00,134.00,VWS V14.01,2013-02-09 16:41:00,
2013-02-09 10:42:00,30.4,24.1,29.43,SSE,157,5.0,5.0,77,0.00,,OVC014,0.00,135.00,VWS V14.01,2013-02-09 16:42:00,
2013-02-09 10:45:00,30.4,24.1,29.43,ESE,114,4.0,4.0,77,0.00,,OVC014,0.00,156.00,VWS V14.01,2013-02-09 16:45:00,
2013-02-09 10:47:00,30.3,24.0,29.43,SSE,164,2.0,8.0,77,0.00,,OVC014,0.00,162.00,VWS V14.01,2013-02-09 16:47:00,
2013-02-09 10:49:00,30.3,24.0,29.43,ESE,115,2.0,4.0,77,0.00,,OVC014,0.00,171.00,VWS V14.01,2013-02-09 16:49:00,
2013-02-09 10:51:00,30.3,24.0,29.43,South,181,0.0,3.0,77,0.00,,OVC014,0.00,163.00,VWS V14.01,2013-02-09 16:51:00,
2013-02-09 10:55:00,30.4,24.1,29.43,SE,130,2.0,6.0,77,0.00,,OVC014,0.00,174.00,VWS V14.01,2013-02-09 16:55:00,
2013-02-09 10:56:00,30.4,24.1,29.42,SSE,150,4.0,6.0,77,0.00,,OVC014,0.00,178.00,VWS V14.01,2013-02-09 16:56:00,
2013-02-09 10:57:00,30.4,24.1,29.42,ESE,106,1.0,4.0,77,0.00,,OVC014,0.00,192.00,VWS V14.01,2013-02-09 16:57:00,
2013-02-09 11:00:00,30.5,24.2,29.42,South,185,2.0,9.0,77,0.00,,OVC014,0.00,244.00,VWS V14.01,2013-02-09 17:00:00,
2013-02-09 11:01:00,30.6,24.3,29.42,South,190,0.0,3.0,77,0.00,,OVC014,0.00,227.00,VWS V14.01,2013-02-09 17:01:00,
2013-02-09 11:04:00,30.6,24.0,29.42,ESE,117,5.0,7.0,76,0.00,,OVC014,0.00,241.00,VWS V14.01,2013-02-09 17:04:00,
2013-02-09 11:06:00,30.7,24.0,29.42,SE,132,5.0,12.0,76,0.00,,OVC014,0.00,200.00,VWS V14.01,2013-02-09 17:06:00,
2013-02-09 11:11:00,30.9,24.2,29.42,SSW,202,4.0,4.0,76,0.00,,OVC014,0.00,258.00,VWS V14.01,2013-02-09 17:11:00,
2013-02-09 11:12:00,30.9,24.2,29.42,SSE,150,1.0,5.0,76,0.00,,OVC014,0.00,213.00,VWS V14.01,2013-02-09 17:12:00,
2013-02-09 11:14:00,30.9,23.9,29.42,South,179,0.0,4.0,75,0.00,,OVC014,0.00,223.00,VWS V14.01,2013-02-09 17:14:00,
2013-02-09 11:18:00,30.9,23.9,29.42,SSE,163,1.0,5.0,75,0.00,,OVC014,0.00,234.00,VWS V14.01,2013-02-09 17:18:00,
2013-02-09 11:19:00,30.9,23.9,29.42,South,175,0.0,7.0,75,0.00,,OVC014,0.00,246.00,VWS V14.01,2013-02-09 17:19:00,
2013-02-09 11:21:00,30.9,24.2,29.42,ESE,120,4.0,6.0,76,0.00,,OVC014,0.00,265.00,VWS V14.01,2013-02-09 17:21:00,
2013-02-09 11:23:00,31.0,24.3,29.41,SSE,150,0.0,1.0,76,0.00,,OVC014,0.00,264.00,VWS V14.01,2013-02-09 17:23:00,
2013-02-09 11:25:00,31.2,24.5,29.41,SW,232,0.0,4.0,76,0.00,,OVC014,0.00,265.00,VWS V14.01,2013-02-09 17:25:00,
2013-02-09 11:29:00,31.4,24.4,29.41,ESE,114,1.0,6.0,75,0.00,,OVC014,0.00,278.00,VWS V14.01,2013-02-09 17:29:00,
2013-02-09 11:31:00,31.4,24.4,29.41,ESE,103,1.0,9.0,75,0.00,,OVC014,0.00,218.00,VWS V14.01,2013-02-09 17:31:00,
2013-02-09 11:35:00,31.5,24.5,29.40,SE,139,0.0,6.0,75,0.00,,OVC014,0.00,213.00,VWS V14.01,2013-02-09 17:35:00,
2013-02-09 11:36:00,31.5,24.5,29.40,ESE,119,6.0,7.0,75,0.00,,OVC014,0.00,227.00,VWS V14.01,2013-02-09 17:36:00,
2013-02-09 11:38:00,31.4,24.4,29.40,SSW,202,1.0,4.0,75,0.00,,OVC014,0.00,243.00,VWS V14.01,2013-02-09 17:38:00,
2013-02-09 11:40:00,31.4,24.4,29.40,West,281,3.0,6.0,75,0.00,,OVC014,0.00,250.00,VWS V14.01,2013-02-09 17:40:00,
2013-02-09 11:41:00,31.4,24.4,29.40,East,83,1.0,5.0,75,0.00,,OVC014,0.00,352.00,VWS V14.01,2013-02-09 17:41:00,
2013-02-09 11:45:00,31.6,24.6,29.40,ESE,110,0.0,3.0,75,0.00,,OVC014,0.00,265.00,VWS V14.01,2013-02-09 17:45:00,
2013-02-09 11:46:00,31.5,24.5,29.40,SSW,202,1.0,5.0,75,0.00,,OVC014,0.00,283.00,VWS V14.01,2013-02-09 17:46:00,
2013-02-09 11:48:00,31.5,24.2,29.40,ESE,109,5.0,5.0,74,0.00,,OVC014,0.00,276.00,VWS V14.01,2013-02-09 17:48:00,
2013-02-09 11:51:00,31.5,24.2,29.40,ESE,113,2.0,6.0,74,0.00,,OVC014,0.00,251.00,VWS V14.01,2013-02-09 17:51:00,
2013-02-09 11:54:00,31.5,24.2,29.40,East,97,5.0,5.0,74,0.00,,OVC014,0.00,260.00,VWS V14.01,2013-02-09 17:54:00,
2013-02-09 11:56:00,31.5,24.2,29.40,ESE,117,1.0,4.0,74,0.00,,OVC014,0.00,244.00,VWS V14.01,2013-02-09 17:56:00,
2013-02-09 11:59:00,31.6,24.3,29.39,ESE,111,0.0,5.0,74,0.00,,OVC014,0.00,287.00,VWS V14.01,2013-02-09 17:59:00,
2013-02-09 12:00:00,31.6,24.6,29.39,SSE,165,5.0,5.0,75,0.00,,OVC014,0.00,345.00,VWS V14.01,2013-02-09 18:00:00,
2013-02-09 12:04:00,31.7,24.7,29.39,South,190,0.0,2.0,75,0.00,,OVC014,0.00,262.00,VWS V14.01,2013-02-09 18:04:00,
2013-02-09 12:06:00,31.7,24.7,29.39,SE,138,0.0,3.0,75,0.00,,OVC014,0.00,320.00,VWS V14.01,2013-02-09 18:06:00,
2013-02-09 12:07:00,31.8,24.8,29.39,SSE,151,5.0,5.0,75,0.00,,OVC014,0.00,320.00,VWS V14.01,2013-02-09 18:07:00,
2013-02-09 12:11:00,32.1,25.1,29.39,SW,221,0.0,4.0,75,0.00,,OVC014,0.00,320.00,VWS V14.01,2013-02-09 18:11:00,
2013-02-09 12:13:00,32.1,24.8,29.39,South,190,1.0,3.0,74,0.00,,OVC014,0.00,325.00,VWS V14.01,2013-02-09 18:13:00,
2013-02-09 12:15:00,32.2,24.9,29.39,South,172,6.0,6.0,74,0.00,,OVC014,0.00,367.00,VWS V14.01,2013-02-09 18:15:00,
2013-02-09 12:17:00,32.3,25.0,29.39,South,179,0.0,2.0,74,0.00,,OVC014,0.00,230.00,VWS V14.01,2013-02-09 18:17:00,
2013-02-09 12:21:00,32.4,25.0,29.39,SSE,168,6.0,6.0,74,0.00,,OVC014,0.00,255.00,VWS V14.01,2013-02-09 18:21:00,
2013-02-09 12:22:00,32.3,25.0,29.39,South,180,0.0,8.0,74,0.00,,OVC014,0.00,250.00,VWS V14.01,2013-02-09 18:22:00,
2013-02-09 12:24:00,32.3,25.0,29.39,SSE,167,1.0,4.0,74,0.00,,OVC014,0.00,246.00,VWS V14.01,2013-02-09 18:24:00,
2013-02-09 12:27:00,32.2,24.9,29.38,South,187,1.0,4.0,74,0.00,,OVC014,0.00,241.00,VWS V14.01,2013-02-09 18:27:00,
2013-02-09 12:30:00,32.3,25.0,29.38,SW,223,6.0,6.0,74,0.00,,OVC014,0.00,301.00,VWS V14.01,2013-02-09 18:30:00,
2013-02-09 12:31:00,32.3,25.0,29.39,ESE,123,5.0,6.0,74,0.00,,OVC014,0.00,246.00,VWS V14.01,2013-02-09 18:31:00,
2013-02-09 12:32:00,32.3,25.0,29.38,ESE,117,2.0,7.0,74,0.00,,OVC014,0.00,246.00,VWS V14.01,2013-02-09 18:32:00,
2013-02-09 12:36:00,32.5,25.1,29.38,ESE,109,9.0,9.0,74,0.00,,OVC014,0.00,274.00,VWS V14.01,2013-02-09 18:36:00,
2013-02-09 12:37:00,32.5,25.1,29.38,ESE,109,1.0,12.0,74,0.00,,OVC014,0.00,292.00,VWS V14.01,2013-02-09 18:37:00,
2013-02-09 12:40:00,32.7,25.3,29.38,ESE,117,5.0,5.0,74,0.00,,OVC014,0.00,427.00,VWS V14.01,2013-02-09 18:40:00,
2013-02-09 12:43:00,33.0,25.6,29.38,SE,128,5.0,9.0,74,0.00,,OVC014,0.00,385.00,VWS V14.01,2013-02-09 18:43:00,
2013-02-09 12:46:00,33.1,25.1,29.38,SSE,148,1.0,4.0,72,0.00,,OVC014,0.00,251.00,VWS V14.01,2013-02-09 18:46:00,
2013-02-09 12:49:00,33.1,25.1,29.38,SSW,210,0.0,3.0,72,0.00,,OVC014,0.00,251.00,VWS V14.01,2013-02-09 18:49:00,
2013-02-09 12:51:00,33.1,25.4,29.38,East,88,0.0,4.0,73,0.00,,OVC014,0.00,237.00,VWS V14.01,2013-02-09 18:51:00,
2013-02-09 12:54:00,33.1,25.4,29.37,SSE,156,2.0,5.0,73,0.00,,OVC014,0.00,267.00,VWS V14.01,2013-02-09 18:54:00,
2013-02-09 12:57:00,33.0,25.3,29.37,ESE,115,1.0,5.0,73,0.00,,OVC014,0.00,232.00,VWS V14.01,2013-02-09 18:57:00,
2013-02-09 13:00:00,33.1,25.4,29.37,East,92,2.0,2.0,73,0.00,,OVC014,0.00,279.00,VWS V14.01,2013-02-09 19:00:00,
2013-02-09 13:01:00,33.2,25.5,29.37,ESE,122,2.0,6.0,73,0.00,,OVC014,0.00,214.00,VWS V14.01,2013-02-09 19:01:00,
2013-02-09 13:03:00,33.2,25.5,29.37,SE,136,4.0,8.0,73,0.00,,OVC014,0.00,264.00,VWS V14.01,2013-02-09 19:03:00,
2013-02-09 13:06:00,33.1,25.1,29.37,SSE,163,5.0,9.0,72,0.00,,OVC014,0.00,260.00,VWS V14.01,2013-02-09 19:06:00,
2013-02-09 13:08:00,33.0,25.0,29.37,ESE,122,2.0,7.0,72,0.00,,OVC014,0.00,330.00,VWS V14.01,2013-02-09 19:08:00,
2013-02-09 13:09:00,33.0,25.3,29.37,SE,132,5.0,7.0,73,0.00,,OVC014,0.00,276.00,VWS V14.01,2013-02-09 19:09:00,
2013-02-09 13:12:00,33.0,25.3,29.37,SSW,194,3.0,7.0,73,0.00,,OVC014,0.00,302.00,VWS V14.01,2013-02-09 19:12:00,
2013-02-09 13:14:00,32.9,25.2,29.37,South,173,1.0,4.0,73,0.00,,OVC014,0.00,239.00,VWS V14.01,2013-02-09 19:14:00,
2013-02-09 13:15:00,32.9,25.2,29.36,SE,132,0.0,4.0,73,0.00,,OVC014,0.00,244.00,VWS V14.01,2013-02-09 19:15:00,
2013-02-09 13:17:00,32.9,25.2,29.36,SSE,160,0.0,6.0,73,0.00,,OVC014,0.00,183.00,VWS V14.01,2013-02-09 19:17:00,
2013-02-09 13:20:00,33.0,25.6,29.36,SE,125,1.0,4.0,74,0.00,,OVC014,0.00,229.00,VWS V14.01,2013-02-09 19:20:00,
2013-02-09 13:21:00,33.0,25.6,29.37,ESE,122,0.0,4.0,74,0.00,,OVC014,0.00,234.00,VWS V14.01,2013-02-09 19:21:00,
2013-02-09 13:22:00,33.1,25.7,29.36,ESE,123,2.0,5.0,74,0.00,,OVC014,0.00,285.00,VWS V14.01,2013-02-09 19:22:00,
2013-02-09 13:26:00,33.2,25.5,29.36,ESE,119,0.0,4.0,73,0.00,,OVC014,0.00,195.00,VWS V14.01,2013-02-09 19:26:00,
2013-02-09 13:27:00,33.3,25.6,29.36,SE,132,0.0,4.0,73,0.00,,OVC014,0.00,202.00,VWS V14.01,2013-02-09 19:27:00,
2013-02-09 13:29:00,33.3,25.6,29.36,SSE,151,6.0,6.0,73,0.00,,OVC014,0.00,225.00,VWS V14.01,2013-02-09 19:29:00,
2013-02-09 13:31:00,33.3,25.3,29.36,SE,141,1.0,4.0,72,0.00,,OVC014,0.00,264.00,VWS V14.01,2013-02-09 19:31:00,
2013-02-09 13:33:00,33.3,25.6,29.36,ESE,111,1.0,6.0,73,0.00,,OVC014,0.00,221.00,VWS V14.01,2013-02-09 19:33:00,
2013-02-09 13:36:00,33.2,25.5,29.36,East,98,0.0,4.0,73,0.00,,OVC014,0.00,341.00,VWS V14.01,2013-02-09 19:36:00,
2013-02-09 13:38:00,33.2,25.5,29.36,SSE,159,0.0,5.0,73,0.00,,OVC014,0.00,253.00,VWS V14.01,2013-02-09 19:38:00,
2013-02-09 13:39:00,33.2,25.5,29.36,SSE,148,1.0,3.0,73,0.00,,OVC014,0.00,281.00,VWS V14.01,2013-02-09 19:39:00,
2013-02-09 13:43:00,33.3,25.6,29.35,SE,133,2.0,6.0,73,0.00,,OVC014,0.00,223.00,VWS V14.01,2013-02-09 19:43:00,
2013-02-09 13:44:00,33.3,25.6,29.35,SSW,202,1.0,2.0,73,0.00,,OVC014,0.00,227.00,VWS V14.01,2013-02-09 19:44:00,
2013-02-09 13:45:00,33.3,25.6,29.35,SSE,149,1.0,6.0,73,0.00,,OVC014,0.00,279.00,VWS V14.01,2013-02-09 19:45:00,
2013-02-09 13:49:00,33.5,25.8,29.35,South,188,3.0,3.0,73,0.00,,OVC014,0.00,383.00,VWS V14.01,2013-02-09 19:49:00,
2013-02-09 13:50:00,33.6,25.9,29.34,South,180,1.0,4.0,73,0.00,,OVC014,0.00,383.00,VWS V14.01,2013-02-09 19:50:00,
2013-02-09 13:51:00,33.6,25.9,29.35,South,185,2.0,7.0,73,0.00,,OVC014,0.00,220.00,VWS V14.01,2013-02-09 19:51:00,
2013-02-09 13:52:00,33.7,26.0,29.35,East,88,0.0,4.0,73,0.00,,OVC014,0.00,274.00,VWS V14.01,2013-02-09 19:52:00,
2013-02-09 13:55:00,33.8,26.1,29.34,SSW,197,3.0,7.0,73,0.00,,OVC014,0.00,262.00,VWS V14.01,2013-02-09 19:55:00,
2013-02-09 13:58:00,33.8,25.7,29.34,East,92,1.0,8.0,72,0.00,,OVC014,0.00,329.00,VWS V14.01,2013-02-09 19:58:00,
2013-02-09 13:59:00,33.8,25.7,29.34,ESE,119,4.0,6.0,72,0.00,,OVC014,0.00,390.00,VWS V14.01,2013-02-09 19:59:00,
2013-02-09 14:02:00,33.8,26.1,29.34,SSE,159,2.0,4.0,73,0.00,,OVC014,0.00,425.00,VWS V14.01,2013-02-09 20:02:00,
2013-02-09 14:05:00,33.8,25.7,29.33,South,184,0.0,6.0,72,0.00,,OVC014,0.00,425.00,VWS V14.01,2013-02-09 20:05:00,
2013-02-09 14:10:00,34.1,26.4,29.33,SSE,159,2.0,6.0,73,0.00,,OVC014,0.00,336.00,VWS V14.01,2013-02-09 20:10:00,
2013-02-09 14:11:00,34.1,26.0,29.33,SE,142,1.0,7.0,72,0.00,,OVC014,0.00,246.00,VWS V14.01,2013-02-09 20:11:00,
2013-02-09 14:12:00,34.1,26.0,29.33,SE,142,1.0,4.0,72,0.00,,OVC014,0.00,216.00,VWS V14.01,2013-02-09 20:12:00,
2013-02-09 14:14:00,34.2,26.1,29.33,South,189,2.0,5.0,72,0.00,,OVC014,0.00,264.00,VWS V14.01,2013-02-09 20:14:00,
2013-02-09 14:18:00,34.2,26.1,29.32,West,261,0.0,3.0,72,0.00,,OVC014,0.00,234.00,VWS V14.01,2013-02-09 20:18:00,
2013-02-09 14:23:00,34.4,26.7,29.32,ESE,123,1.0,5.0,73,0.00,,OVC014,0.00,306.00,VWS V14.01,2013-02-09 20:23:00,
2013-02-09 14:25:00,34.4,26.7,29.32,ESE,112,5.0,14.0,73,0.00,,OVC014,0.00,264.00,VWS V14.01,2013-02-09 20:25:00,
2013-02-09 14:29:00,34.4,26.3,29.32,SE,132,1.0,8.0,72,0.00,,OVC014,0.00,272.00,VWS V14.01,2013-02-09 20:29:00,
2013-02-09 14:30:00,34.4,26.3,29.32,East,98,4.0,4.0,72,0.00,,OVC014,0.00,272.00,VWS V14.01,2013-02-09 20:30:00,
2013-02-09 14:34:00,34.9,26.8,29.31,ENE,71,1.0,7.0,72,0.00,,OVC014,0.00,517.00,VWS V14.01,2013-02-09 20:34:00,
2013-02-09 14:37:00,35.3,27.2,29.31,ESE,121,8.0,8.0,72,0.00,,OVC014,0.00,533.00,VWS V14.01,2013-02-09 20:37:00,
2013-02-09 14:38:00,35.5,27.4,29.31,SE,129,1.0,9.0,72,0.00,,OVC014,0.00,455.00,VWS V14.01,2013-02-09 20:38:00,
2013-02-09 14:43:00,36.1,27.3,29.31,East,95,2.0,5.0,70,0.00,,OVC014,0.00,554.00,VWS V14.01,2013-02-09 20:43:00,
2013-02-09 14:44:00,36.1,27.3,29.31,SE,141,0.0,4.0,70,0.00,,OVC014,0.00,592.00,VWS V14.01,2013-02-09 20:44:00,
2013-02-09 14:45:00,36.2,27.7,29.31,SE,141,0.0,1.0,71,0.00,,OVC014,0.00,524.00,VWS V14.01,2013-02-09 20:45:00,
2013-02-09 14:49:00,36.7,27.9,29.31,ESE,117,4.0,5.0,70,0.00,,OVC014,0.00,533.00,VWS V14.01,2013-02-09 20:49:00,
2013-02-09 14:50:00,36.8,28.0,29.31,ESE,113,8.0,8.0,70,0.00,,OVC014,0.00,533.00,VWS V14.01,2013-02-09 20:50:00,
2013-02-09 14:51:00,36.8,27.6,29.31,SE,133,1.0,11.0,69,0.00,,OVC014,0.00,538.00,VWS V14.01,2013-02-09 20:51:00,
2013-02-09 14:55:00,36.9,27.7,29.31,ESE,123,7.0,7.0,69,0.00,,OVC014,0.00,517.00,VWS V14.01,2013-02-09 20:55:00,
2013-02-09 14:57:00,36.8,27.6,29.31,ESE,123,2.0,6.0,69,0.00,,OVC014,0.00,517.00,VWS V14.01,2013-02-09 20:57:00,
2013-02-09 14:59:00,36.8,27.6,29.31,ESE,117,6.0,7.0,69,0.00,,OVC014,0.00,517.00,VWS V14.01,2013-02-09 20:59:00,
2013-02-09 15:02:00,36.4,27.2,29.31,ESE,113,2.0,7.0,69,0.00,,OVC014,0.00,410.00,VWS V14.01,2013-02-09 21:02:00,
2013-02-09 15:03:00,36.2,27.0,29.31,SE,124,2.0,5.0,69,0.00,,OVC014,0.00,410.00,VWS V14.01,2013-02-09 21:03:00,
2013-02-09 15:05:00,35.9,26.7,29.31,South,172,5.0,7.0,69,0.00,,OVC014,0.00,123.00,VWS V14.01,2013-02-09 21:05:00,
2013-02-09 15:08:00,35.4,26.6,29.31,ESE,119,0.0,4.0,70,0.00,,OVC014,0.00,172.00,VWS V14.01,2013-02-09 21:08:00,
2013-02-09 15:10:00,35.1,26.7,29.30,SW,226,1.0,3.0,71,0.00,,OVC014,0.00,380.00,VWS V14.01,2013-02-09 21:10:00,
2013-02-09 15:12:00,35.0,26.9,29.30,ESE,106,0.0,5.0,72,0.00,,OVC014,0.00,125.00,VWS V14.01,2013-02-09 21:12:00,
2013-02-09 15:16:00,35.2,27.1,29.30,SE,132,1.0,5.0,72,0.00,,OVC014,0.00,399.00,VWS V14.01,2013-02-09 21:16:00,
2013-02-09 15:17:00,35.3,27.5,29.30,SSE,168,0.0,8.0,73,0.00,,OVC014,0.00,378.00,VWS V14.01,2013-02-09 21:17:00,
2013-02-09 15:21:00,35.5,27.4,29.30,East,91,2.0,5.0,72,0.00,,OVC014,0.00,427.00,VWS V14.01,2013-02-09 21:21:00,
2013-02-09 15:24:00,35.8,27.7,29.30,East,98,1.0,7.0,72,0.00,,OVC014,0.00,341.00,VWS V14.01,2013-02-09 21:24:00,
2013-02-09 15:27:00,36.0,27.5,29.30,ESE,109,2.0,4.0,71,0.00,,OVC014,0.00,332.00,VWS V14.01,2013-02-09 21:27:00,
2013-02-09 15:30:00,36.0,27.5,29.29,SSE,154,0.0,9.0,71,0.00,,OVC014,0.00,199.00,VWS V14.01,2013-02-09 21:30:00,
2013-02-09 15:32:00,35.9,27.4,29.30,ENE,76,3.0,11.0,71,0.00,,OVC014,0.00,265.00,VWS V14.01,2013-02-09 21:32:00,
2013-02-09 15:35:00,35.8,27.7,29.29,SE,145,1.0,7.0,72,0.00,,OVC014,0.00,142.00,VWS V14.01,2013-02-09 21:35:00,
2013-02-09 15:36:00,35.8,27.7,29.29,East,86,1.0,3.0,72,0.00,,OVC014,0.00,283.00,VWS V14.01,2013-02-09 21:36:00,
2013-02-09 15:39:00,36.0,27.9,29.29,SSW,203,7.0,13.0,72,0.00,,OVC014,0.00,341.00,VWS V14.01,2013-02-09 21:39:00,
2013-02-09 15:43:00,36.1,28.0,29.29,ESE,117,0.0,6.0,72,0.00,,OVC014,0.00,355.00,VWS V14.01,2013-02-09 21:43:00,
2013-02-09 15:44:00,36.2,28.1,29.29,ESE,117,0.0,2.0,72,0.00,,OVC014,0.00,271.00,VWS V14.01,2013-02-09 21:44:00,
2013-02-09 15:46:00,36.5,28.4,29.29,East,101,0.0,6.0,72,0.00,,OVC014,0.00,350.00,VWS V14.01,2013-02-09 21:46:00,
2013-02-09 15:48:00,36.8,28.6,29.29,South,173,4.0,6.0,72,0.00,,OVC014,0.00,236.00,VWS V14.01,2013-02-09 21:48:00,
2013-02-09 15:51:00,36.8,28.3,29.28,South,180,0.0,4.0,71,0.00,,OVC014,0.00,294.00,VWS V14.01,2013-02-09 21:51:00,
2013-02-09 15:53:00,36.8,28.3,29.29,ESE,117,2.0,9.0,71,0.00,,OVC014,0.00,320.00,VWS V14.01,2013-02-09 21:53:00,
2013-02-09 15:56:00,36.8,28.3,29.28,SE,133,5.0,8.0,71,0.00,,OVC014,0.00,308.00,VWS V14.01,2013-02-09 21:56:00,
2013-02-09 15:57:00,36.8,28.6,29.28,ESE,112,2.0,5.0,72,0.00,,OVC014,0.00,301.00,VWS V14.01,2013-02-09 21:57:00,
2013-02-09 15:58:00,36.8,28.6,29.28,ESE,113,7.0,8.0,72,0.00,,OVC014,0.00,299.00,VWS V14.01,2013-02-09 21:58:00,
2013-02-09 15:59:00,36.8,28.6,29.28,ESE,123,2.0,8.0,72,0.00,,OVC014,0.00,287.00,VWS V14.01,2013-02-09 21:59:00,
2013-02-09 16:04:00,37.1,28.9,29.28,ESE,113,0.0,4.0,72,0.00,,SCT014,0.00,251.00,VWS V14.01,2013-02-09 22:04:00,
2013-02-09 16:06:00,37.1,28.9,29.27,SSE,153,1.0,7.0,72,0.00,,SCT014,0.00,84.00,VWS V14.01,2013-02-09 22:06:00,
2013-02-09 16:07:00,37.1,28.6,29.27,SE,139,6.0,8.0,71,0.00,,SCT014,0.00,77.00,VWS V14.01,2013-02-09 22:07:00,
2013-02-09 16:10:00,36.9,28.4,29.27,ESE,114,0.0,2.0,71,0.00,,SCT014,0.00,142.00,VWS V14.01,2013-02-09 22:10:00,
2013-02-09 16:12:00,36.7,28.2,29.27,ESE,113,0.0,1.0,71,0.00,,SCT014,0.00,77.00,VWS V14.01,2013-02-09 22:12:00,
2013-02-09 16:15:00,36.5,29.7,29.27,ESE,117,0.0,5.0,76,0.00,,SCT014,0.00,137.00,VWS V14.01,2013-02-09 22:15:00,
2013-02-09 16:17:00,36.3,28.1,29.27,South,173,8.0,8.0,72,0.00,,SCT014,0.00,114.00,VWS V14.01,2013-02-09 22:17:00,
2013-02-09 16:20:00,36.2,28.4,29.27,ESE,105,0.0,4.0,73,0.00,,SCT014,0.00,125.00,VWS V14.01,2013-02-09 22:20:00,
2013-02-09 16:21:00,36.2,28.4,29.27,SE,126,4.0,4.0,73,0.00,,SCT014,0.00,128.00,VWS V14.01,2013-02-09 22:21:00,
2013-02-09 16:25:00,36.3,28.5,29.26,SE,142,5.0,6.0,73,0.00,,SCT014,0.00,105.00,VWS V14.01,2013-02-09 22:25:00,
2013-02-09 16:26:00,36.3,28.5,29.27,SE,132,0.0,5.0,73,0.00,,SCT014,0.00,93.00,VWS V14.01,2013-02-09 22:26:00,
2013-02-09 16:28:00,36.3,28.5,29.27,ESE,119,2.0,12.0,73,0.00,,SCT014,0.00,95.00,VWS V14.01,2013-02-09 22:28:00,
2013-02-09 16:32:00,36.2,28.4,29.26,ESE,121,2.0,6.0,73,0.00,,SCT014,0.00,51.00,VWS V14.01,2013-02-09 22:32:00,
2013-02-09 16:34:00,36.1,28.6,29.26,ESE,122,0.0,5.0,74,0.00,,SCT014,0.00,54.00,VWS V14.01,2013-02-09 22:34:00,
2013-02-09 16:37:00,36.0,28.5,29.26,NE,54,4.0,8.0,74,0.00,,SCT014,0.00,40.00,VWS V14.01,2013-02-09 22:37:00,
2013-02-09 16:39:00,35.9,28.4,29.26,ESE,119,1.0,8.0,74,0.00,,SCT014,0.00,39.00,VWS V14.01,2013-02-09 22:39:00,
2013-02-09 16:42:00,35.7,28.6,29.26,SSE,148,0.0,6.0,75,0.00,,SCT014,0.00,26.00,VWS V14.01,2013-02-09 22:42:00,
2013-02-09 16:45:00,35.5,28.4,29.26,SE,127,5.0,6.0,75,0.00,,SCT014,0.00,21.00,VWS V14.01,2013-02-09 22:45:00,
2013-02-09 16:47:00,35.4,28.3,29.26,SE,126,1.0,4.0,75,0.00,,SCT014,0.00,21.00,VWS V14.01,2013-02-09 22:47:00,
2013-02-09 16:50:00,35.2,28.4,29.26,SW,225,3.0,6.0,76,0.00,,SCT014,0.00,21.00,VWS V14.01,2013-02-09 22:50:00,
2013-02-09 16:52:00,35.1,28.3,29.26,ESE,123,0.0,4.0,76,0.00,,SCT014,0.00,21.00,VWS V14.01,2013-02-09 22:52:00,
2013-02-09 16:55:00,34.9,28.4,29.26,SE,140,1.0,4.0,77,0.00,,SCT014,0.00,19.00,VWS V14.01,2013-02-09 22:55:00,
2013-02-09 16:57:00,34.8,28.3,29.26,ESE,102,1.0,4.0,77,0.00,,SCT014,0.00,19.00,VWS V14.01,2013-02-09 22:57:00,
2013-02-09 17:00:00,34.6,28.1,29.26,ESE,105,2.0,4.0,77,0.00,,SCT014,0.00,16.00,VWS V14.01,2013-02-09 23:00:00,
2013-02-09 17:02:00,34.5,28.4,29.26,ESE,111,2.0,2.0,78,0.00,,SCT014,0.00,14.00,VWS V14.01,2013-02-09 23:02:00,
2013-02-09 17:03:00,34.5,28.4,29.26,SE,139,2.0,2.0,78,0.00,,SCT014,0.00,12.00,VWS V14.01,2013-02-09 23:03:00,
2013-02-09 17:07:00,34.4,28.3,29.26,SSE,153,0.0,1.0,78,0.00,,SCT014,0.00,11.00,VWS V14.01,2013-02-09 23:07:00,
2013-02-09 17:09:00,34.4,28.3,29.26,SE,131,1.0,2.0,78,0.00,,SCT014,0.00,9.00,VWS V14.01,2013-02-09 23:09:00,
2013-02-09 17:13:00,34.4,28.6,29.25,ESE,111,1.0,1.0,79,0.00,,SCT014,0.00,7.00,VWS V14.01,2013-02-09 23:13:00,
2013-02-09 17:15:00,34.3,28.5,29.25,SE,128,1.0,2.0,79,0.00,,SCT014,0.00,7.00,VWS V14.01,2013-02-09 23:15:00,
2013-02-09 17:18:00,34.2,28.4,29.25,SE,138,4.0,4.0,79,0.00,,SCT014,0.00,5.00,VWS V14.01,2013-02-09 23:18:00,
2013-02-09 17:20:00,34.2,28.4,29.25,SE,125,0.0,1.0,79,0.00,,SCT014,0.00,0.00,VWS V14.01,2013-02-09 23:20:00,
2013-02-09 17:21:00,34.1,28.3,29.25,ESE,122,1.0,1.0,79,0.00,,SCT014,0.00,0.00,VWS V14.01,2013-02-09 23:21:00,
2013-02-09 17:23:00,34.1,28.6,29.25,SE,134,0.0,4.0,80,0.00,,SCT014,0.00,0.00,VWS V14.01,2013-02-09 23:23:00,
2013-02-09 17:26:00,34.1,28.6,29.25,SE,134,0.0,1.0,80,0.00,,SCT014,0.00,0.00,VWS V14.01,2013-02-09 23:26:00,
2013-02-09 17:30:00,34.1,28.6,29.25,SE,134,0.0,1.0,80,0.00,,SCT014,0.00,0.00,VWS V14.01,2013-02-09 23:30:00,
2013-02-09 17:31:00,34.1,28.6,29.25,ESE,110,6.0,7.0,80,0.00,,SCT014,0.00,0.00,VWS V14.01,2013-02-09 23:31:00,
2013-02-09 17:33:00,34.1,28.6,29.25,SE,127,0.0,2.0,80,0.00,,SCT014,0.00,0.00,VWS V14.01,2013-02-09 23:33:00,
2013-02-09 17:34:00,34.1,28.6,29.25,ESE,110,0.0,2.0,80,0.00,,SCT014,0.00,0.00,VWS V14.01,2013-02-09 23:34:00,
2013-02-09 17:38:00,34.2,29.0,29.24,ESE,115,0.0,2.0,81,0.00,,SCT014,0.00,0.00,VWS V14.01,2013-02-09 23:38:00,
2013-02-09 17:39:00,34.2,29.0,29.24,ESE,115,0.0,1.0,81,0.00,,SCT014,0.00,0.00,VWS V14.01,2013-02-09 23:39:00,
2013-02-09 17:41:00,34.3,29.1,29.24,ESE,113,0.0,2.0,81,0.00,,SCT014,0.00,0.00,VWS V14.01,2013-02-09 23:41:00,
2013-02-09 17:44:00,34.3,29.1,29.24,SE,136,4.0,4.0,81,0.00,,SCT014,0.00,0.00,VWS V14.01,2013-02-09 23:44:00,
2013-02-09 17:45:00,34.4,29.2,29.24,ESE,115,4.0,4.0,81,0.00,,SCT014,0.00,0.00,VWS V14.01,2013-02-09 23:45:00,
2013-02-09 17:47:00,34.4,29.2,29.24,SE,142,0.0,5.0,81,0.00,,SCT014,0.00,0.00,VWS V14.01,2013-02-09 23:47:00,
2013-02-09 17:50:00,34.4,29.2,29.24,ESE,117,4.0,5.0,81,0.00,,SCT014,0.00,0.00,VWS V14.01,2013-02-09 23:50:00,
2013-02-09 17:52:00,34.4,29.2,29.24,ESE,121,5.0,5.0,81,0.00,,SCT014,0.00,0.00,VWS V14.01,2013-02-09 23:52:00,
2013-02-09 17:53:00,34.4,29.2,29.24,ESE,112,0.0,7.0,81,0.00,,SCT014,0.00,0.00,VWS V14.01,2013-02-09 23:53:00,
2013-02-09 17:57:00,34.4,29.2,29.24,ESE,115,2.0,6.0,81,0.00,,SCT014,0.00,0.00,VWS V14.01,2013-02-09 23:57:00,
2013-02-09 17:58:00,34.4,29.2,29.23,ESE,123,1.0,5.0,81,0.00,,SCT014,0.00,0.00,VWS V14.01,2013-02-09 23:58:00,
2013-02-09 18:00:00,34.5,29.3,29.23,ESE,119,0.0,1.0,81,0.00,,CLR,0.00,0.00,VWS V14.01,2013-02-10 00:00:00,
2013-02-09 18:04:00,34.6,29.4,29.23,East,97,1.0,7.0,81,0.00,,CLR,0.00,0.00,VWS V14.01,2013-02-10 00:04:00,
2013-02-09 18:05:00,34.5,29.3,29.23,East,98,2.0,5.0,81,0.00,,CLR,0.00,0.00,VWS V14.01,2013-02-10 00:05:00,
2013-02-09 18:06:00,34.6,29.1,29.23,ESE,104,4.0,5.0,80,0.00,,CLR,0.00,0.00,VWS V14.01,2013-02-10 00:06:00,
2013-02-09 18:11:00,34.6,29.4,29.23,ESE,105,5.0,5.0,81,0.00,,CLR,0.00,0.00,VWS V14.01,2013-02-10 00:11:00,
2013-02-09 18:13:00,34.6,29.1,29.22,ESE,107,2.0,5.0,80,0.00,,CLR,0.00,0.00,VWS V14.01,2013-02-10 00:13:00,
2013-02-09 18:14:00,34.6,29.1,29.22,SE,127,0.0,5.0,80,0.00,,CLR,0.00,0.00,VWS V14.01,2013-02-10 00:14:00,
2013-02-09 18:17:00,34.6,29.1,29.23,ESE,122,0.0,2.0,80,0.00,,CLR,0.00,0.00,VWS V14.01,2013-02-10 00:17:00,
2013-02-09 18:19:00,34.6,29.1,29.22,SE,141,2.0,4.0,80,0.00,,CLR,0.00,0.00,VWS V14.01,2013-02-10 00:19:00,
2013-02-09 18:23:00,34.5,29.0,29.22,SSE,156,0.0,2.0,80,0.00,,CLR,0.00,0.00,VWS V14.01,2013-02-10 00:23:00,
2013-02-09 18:24:00,34.5,29.0,29.22,SE,126,6.0,6.0,80,0.00,,CLR,0.00,0.00,VWS V14.01,2013-02-10 00:24:00,
2013-02-09 18:27:00,34.4,28.9,29.22,SE,133,1.0,1.0,80,0.00,,CLR,0.00,0.00,VWS V14.01,2013-02-10 00:27:00,
2013-02-09 18:28:00,34.4,28.9,29.23,ESE,118,1.0,2.0,80,0.00,,CLR,0.00,0.00,VWS V14.01,2013-02-10 00:28:00,
2013-02-09 18:29:00,34.4,28.9,29.23,SE,136,2.0,5.0,80,0.00,,CLR,0.00,0.00,VWS V14.01,2013-02-10 00:29:00,
2013-02-09 18:30:00,34.4,28.9,29.23,SE,126,2.0,7.0,80,0.00,,CLR,0.00,0.00,VWS V14.01,2013-02-10 00:30:00,
2013-02-09 18:34:00,34.4,28.9,29.23,SSE,159,1.0,6.0,80,0.00,,CLR,0.00,0.00,VWS V14.01,2013-02-10 00:34:00,
2013-02-09 18:35:00,34.4,28.9,29.23,ESE,115,1.0,7.0,80,0.00,,CLR,0.00,0.00,VWS V14.01,2013-02-10 00:35:00,
2013-02-09 18:37:00,34.4,28.9,29.23,ESE,110,5.0,6.0,80,0.00,,CLR,0.00,0.00,VWS V14.01,2013-02-10 00:37:00,
2013-02-09 18:41:00,34.4,28.9,29.23,SE,131,2.0,6.0,80,0.00,,CLR,0.00,0.00,VWS V14.01,2013-02-10 00:41:00,
2013-02-09 18:42:00,34.4,28.9,29.22,SE,127,0.0,4.0,80,0.00,,CLR,0.00,0.00,VWS V14.01,2013-02-10 00:42:00,
2013-02-09 18:46:00,34.4,28.9,29.23,ESE,119,4.0,6.0,80,0.00,,CLR,0.00,0.00,VWS V14.01,2013-02-10 00:46:00,
2013-02-09 18:47:00,34.4,28.9,29.22,East,92,1.0,8.0,80,0.00,,CLR,0.00,0.00,VWS V14.01,2013-02-10 00:47:00,
2013-02-09 18:48:00,34.4,28.9,29.22,SE,141,4.0,5.0,80,0.00,,CLR,0.00,0.00,VWS V14.01,2013-02-10 00:48:00,
2013-02-09 18:53:00,34.4,28.6,29.22,ESE,118,1.0,5.0,79,0.00,,CLR,0.00,0.00,VWS V14.01,2013-02-10 00:53:00,
2013-02-09 18:54:00,34.4,28.6,29.22,ESE,112,2.0,6.0,79,0.00,,CLR,0.00,0.00,VWS V14.01,2013-02-10 00:54:00,
2013-02-09 18:57:00,34.4,28.6,29.22,South,172,5.0,7.0,79,0.00,,CLR,0.00,0.00,VWS V14.01,2013-02-10 00:57:00,
2013-02-09 19:00:00,34.4,28.6,29.22,SE,135,7.0,8.0,79,0.00,,CLR,0.00,0.00,VWS V14.01,2013-02-10 01:00:00,
2013-02-09 19:01:00,34.4,28.6,29.22,SE,134,2.0,7.0,79,0.00,,CLR,0.00,0.00,VWS V14.01,2013-02-10 01:01:00,
2013-02-09 19:03:00,34.4,28.6,29.22,SE,130,2.0,6.0,79,0.00,,CLR,0.00,0.00,VWS V14.01,2013-02-10 01:03:00,
2013-02-09 19:05:00,34.4,28.6,29.22,SE,129,5.0,6.0,79,0.00,,CLR,0.00,0.00,VWS V14.01,2013-02-10 01:05:00,
2013-02-09 19:06:00,34.4,28.6,29.22,ESE,122,4.0,7.0,79,0.00,,CLR,0.00,0.00,VWS V14.01,2013-02-10 01:06:00,
2013-02-09 19:07:00,34.4,28.6,29.22,SE,146,8.0,8.0,79,0.00,,CLR,0.00,0.00,VWS V14.01,2013-02-10 01:07:00,
2013-02-09 19:11:00,34.4,28.6,29.21,South,171,5.0,14.0,79,0.00,,CLR,0.00,0.00,VWS V14.01,2013-02-10 01:11:00,
2013-02-09 19:13:00,34.4,28.6,29.21,SE,146,2.0,8.0,79,0.00,,CLR,0.00,0.00,VWS V14.01,2013-02-10 01:13:00,
2013-02-09 19:15:00,34.4,28.6,29.21,East,95,2.0,6.0,79,0.00,,CLR,0.00,0.00,VWS V14.01,2013-02-10 01:15:00,
2013-02-09 19:16:00,34.4,28.6,29.21,ESE,119,2.0,7.0,79,0.00,,CLR,0.00,0.00,VWS V14.01,2013-02-10 01:16:00,
2013-02-09 19:19:00,34.4,28.6,29.21,East,88,3.0,11.0,79,0.00,,CLR,0.00,0.00,VWS V14.01,2013-02-10 01:19:00,
2013-02-09 19:23:00,34.3,28.5,29.21,SSE,161,2.0,5.0,79,0.00,,CLR,0.00,0.00,VWS V14.01,2013-02-10 01:23:00,
2013-02-09 19:24:00,34.3,28.5,29.21,ESE,105,2.0,5.0,79,0.00,,CLR,0.00,0.00,VWS V14.01,2013-02-10 01:24:00,
2013-02-09 19:25:00,34.3,28.5,29.21,East,86,6.0,12.0,79,0.00,,CLR,0.00,0.00,VWS V14.01,2013-02-10 01:25:00,
2013-02-09 19:26:00,34.3,28.5,29.21,SE,127,7.0,14.0,79,0.00,,CLR,0.00,0.00,VWS V14.01,2013-02-10 01:26:00,
2013-02-09 19:28:00,34.3,28.5,29.21,East,82,1.0,7.0,79,0.00,,CLR,0.00,0.00,VWS V14.01,2013-02-10 01:28:00,
2013-02-09 19:30:00,34.3,28.5,29.21,SSE,155,1.0,8.0,79,0.00,,CLR,0.00,0.00,VWS V14.01,2013-02-10 01:30:00,
2013-02-09 19:33:00,34.3,28.5,29.21,SSE,148,2.0,5.0,79,0.00,,CLR,0.00,0.00,VWS V14.01,2013-02-10 01:33:00,
2013-02-09 19:34:00,34.3,28.5,29.21,ESE,121,1.0,5.0,79,0.00,,CLR,0.00,0.00,VWS V14.01,2013-02-10 01:34:00,
2013-02-09 19:38:00,34.3,28.5,29.21,SE,127,4.0,5.0,79,0.00,,CLR,0.00,0.00,VWS V14.01,2013-02-10 01:38:00,
2013-02-09 19:39:00,34.3,28.5,29.20,SE,134,2.0,8.0,79,0.00,,CLR,0.00,0.00,VWS V14.01,2013-02-10 01:39:00,
2013-02-09 19:40:00,34.3,28.5,29.21,ESE,116,9.0,12.0,79,0.00,,CLR,0.00,0.00,VWS V14.01,2013-02-10 01:40:00,
2013-02-09 19:43:00,34.3,28.5,29.21,SE,126,1.0,4.0,79,0.00,,CLR,0.00,0.00,VWS V14.01,2013-02-10 01:43:00,
2013-02-09 19:44:00,34.3,28.5,29.21,East,91,13.0,13.0,79,0.00,,CLR,0.00,0.00,VWS V14.01,2013-02-10 01:44:00,
2013-02-09 19:48:00,34.3,28.5,29.21,SE,140,6.0,7.0,79,0.00,,CLR,0.00,0.00,VWS V14.01,2013-02-10 01:48:00,
2013-02-09 19:50:00,34.4,28.6,29.21,ESE,105,2.0,8.0,79,0.00,,CLR,0.00,0.00,VWS V14.01,2013-02-10 01:50:00,
2013-02-09 19:52:00,34.4,28.6,29.21,SE,144,1.0,4.0,79,0.00,,CLR,0.00,0.00,VWS V14.01,2013-02-10 01:52:00,
2013-02-09 19:53:00,34.4,28.6,29.21,ESE,123,2.0,6.0,79,0.00,,CLR,0.00,0.00,VWS V14.01,2013-02-10 01:53:00,
2013-02-09 19:54:00,34.4,28.6,29.21,East,96,2.0,9.0,79,0.00,,CLR,0.00,0.00,VWS V14.01,2013-02-10 01:54:00,
2013-02-09 19:58:00,34.4,28.6,29.21,ESE,121,2.0,6.0,79,0.00,,CLR,0.00,0.00,VWS V14.01,2013-02-10 01:58:00,
2013-02-09 20:00:00,34.4,28.6,29.21,ENE,73,5.0,7.0,79,0.00,,CLR,0.00,0.00,VWS V14.01,2013-02-10 02:00:00,
2013-02-09 20:01:00,34.4,28.6,29.21,East,97,4.0,7.0,79,0.00,,CLR,0.00,0.00,VWS V14.01,2013-02-10 02:01:00,
2013-02-09 20:04:00,34.4,28.6,29.21,SSE,151,0.0,7.0,79,0.00,,CLR,0.00,0.00,VWS V14.01,2013-02-10 02:04:00,
2013-02-09 20:05:00,34.4,28.6,29.21,SSE,148,4.0,7.0,79,0.00,,CLR,0.00,0.00,VWS V14.01,2013-02-10 02:05:00,
2013-02-09 20:06:00,34.4,28.6,29.21,ESE,114,4.0,11.0,79,0.00,,CLR,0.00,0.00,VWS V14.01,2013-02-10 02:06:00,
2013-02-09 20:07:00,34.4,28.6,29.21,SSE,151,1.0,7.0,79,0.00,,CLR,0.00,0.00,VWS V14.01,2013-02-10 02:07:00,
2013-02-09 20:09:00,34.4,28.3,29.21,WSW,242,1.0,13.0,78,0.00,,CLR,0.00,0.00,VWS V14.01,2013-02-10 02:09:00,
2013-02-09 20:13:00,34.4,28.3,29.21,SSE,157,2.0,7.0,78,0.00,,CLR,0.00,0.00,VWS V14.01,2013-02-10 02:13:00,
2013-02-09 20:14:00,34.4,28.3,29.21,ESE,117,8.0,8.0,78,0.00,,CLR,0.00,0.00,VWS V14.01,2013-02-10 02:14:00,
2013-02-09 20:18:00,34.4,28.3,29.21,SSW,199,6.0,6.0,78,0.00,,CLR,0.00,0.00,VWS V14.01,2013-02-10 02:18:00,
2013-02-09 20:20:00,34.4,28.3,29.21,South,176,4.0,4.0,78,0.00,,CLR,0.00,0.00,VWS V14.01,2013-02-10 02:20:00,
2013-02-09 20:21:00,34.4,28.3,29.20,SE,127,2.0,6.0,78,0.00,,CLR,0.00,0.00,VWS V14.01,2013-02-10 02:21:00,
2013-02-09 20:22:00,34.4,28.3,29.20,East,95,2.0,8.0,78,0.00,,CLR,0.00,0.00,VWS V14.01,2013-02-10 02:22:00,
2013-02-09 20:23:00,34.4,28.3,29.20,SSW,204,5.0,7.0,78,0.00,,CLR,0.00,0.00,VWS V14.01,2013-02-10 02:23:00,
2013-02-09 20:28:00,34.4,28.3,29.20,ESE,123,6.0,6.0,78,0.00,,CLR,0.00,0.00,VWS V14.01,2013-02-10 02:28:00,
2013-02-09 20:29:00,34.4,28.3,29.20,ESE,117,2.0,6.0,78,0.00,,CLR,0.00,0.00,VWS V14.01,2013-02-10 02:29:00,
2013-02-09 20:32:00,34.4,28.3,29.20,ESE,111,1.0,7.0,78,0.00,,CLR,0.00,0.00,VWS V14.01,2013-02-10 02:32:00,
2013-02-09 20:33:00,34.4,28.3,29.20,ENE,75,5.0,8.0,78,0.00,,CLR,0.00,0.00,VWS V14.01,2013-02-10 02:33:00,
2013-02-09 20:34:00,34.4,28.3,29.20,ESE,111,9.0,11.0,78,0.00,,CLR,0.00,0.00,VWS V14.01,2013-02-10 02:34:00,
2013-02-09 20:37:00,34.4,28.3,29.20,South,190,2.0,12.0,78,0.00,,CLR,0.00,0.00,VWS V14.01,2013-02-10 02:37:00,
2013-02-09 20:38:00,34.4,28.3,29.20,SE,125,1.0,6.0,78,0.00,,CLR,0.00,0.00,VWS V14.01,2013-02-10 02:38:00,
2013-02-09 20:39:00,34.4,28.3,29.20,ESE,113,6.0,6.0,78,0.00,,CLR,0.00,0.00,VWS V14.01,2013-02-10 02:39:00,
2013-02-09 20:41:00,34.4,28.3,29.20,South,176,2.0,6.0,78,0.00,,CLR,0.00,0.00,VWS V14.01,2013-02-10 02:41:00,
2013-02-09 20:42:00,34.4,28.3,29.20,NE,47,2.0,4.0,78,0.00,,CLR,0.00,0.00,VWS V14.01,2013-02-10 02:42:00,
2013-02-09 20:44:00,34.4,28.3,29.20,East,86,6.0,9.0,78,0.00,,CLR,0.00,0.00,VWS V14.01,2013-02-10 02:44:00,
2013-02-09 20:47:00,34.4,28.3,29.20,ESE,113,5.0,5.0,78,0.00,,CLR,0.00,0.00,VWS V14.01,2013-02-10 02:47:00,
2013-02-09 20:48:00,34.4,28.3,29.20,SE,126,4.0,7.0,78,0.00,,CLR,0.00,0.00,VWS V14.01,2013-02-10 02:48:00,
2013-02-09 20:50:00,34.4,28.3,29.20,SSW,204,3.0,11.0,78,0.00,,CLR,0.00,0.00,VWS V14.01,2013-02-10 02:50:00,
2013-02-09 20:54:00,34.4,28.3,29.20,SE,126,1.0,6.0,78,0.00,,CLR,0.00,0.00,VWS V14.01,2013-02-10 02:54:00,
2013-02-09 20:55:00,34.4,28.3,29.20,ESE,120,4.0,7.0,78,0.00,,CLR,0.00,0.00,VWS V14.01,2013-02-10 02:55:00,
2013-02-09 20:59:00,34.5,28.4,29.20,ENE,72,3.0,8.0,78,0.00,,CLR,0.00,0.00,VWS V14.01,2013-02-10 02:59:00,
2013-02-09 21:00:00,34.6,28.5,29.20,SE,136,0.0,5.0,78,0.00,,CLR,0.00,0.00,VWS V14.01,2013-02-10 03:00:00,
2013-02-09 21:01:00,34.6,28.5,29.19,SE,141,6.0,8.0,78,0.00,,CLR,0.00,0.00,VWS V14.01,2013-02-10 03:01:00,
2013-02-09 21:06:00,34.6,28.5,29.19,ESE,111,1.0,7.0,78,0.00,,CLR,0.00,0.00,VWS V14.01,2013-02-10 03:06:00,
2013-02-09 21:07:00,34.6,28.1,29.19,ESE,114,1.0,2.0,77,0.00,,CLR,0.00,0.00,VWS V14.01,2013-02-10 03:07:00,
2013-02-09 21:08:00,34.6,28.5,29.19,SE,132,1.0,9.0,78,0.00,,CLR,0.00,0.00,VWS V14.01,2013-02-10 03:08:00,
2013-02-09 21:12:00,34.6,28.5,29.19,ENE,65,7.0,7.0,78,0.00,,CLR,0.00,0.00,VWS V14.01,2013-02-10 03:12:00,
2013-02-09 21:13:00,34.5,28.4,29.19,SE,130,6.0,7.0,78,0.00,,CLR,0.00,0.00,VWS V14.01,2013-02-10 03:13:00,
2013-02-09 21:14:00,34.5,28.4,29.19,ESE,123,2.0,8.0,78,0.00,,CLR,0.00,0.00,VWS V14.01,2013-02-10 03:14:00,
2013-02-09 21:18:00,34.5,28.4,29.19,SE,144,2.0,5.0,78,0.00,,CLR,0.00,0.00,VWS V14.01,2013-02-10 03:18:00,
2013-02-09 21:19:00,34.4,28.3,29.19,SE,132,1.0,5.0,78,0.00,,CLR,0.00,0.00,VWS V14.01,2013-02-10 03:19:00,
2013-02-09 21:23:00,34.6,28.5,29.19,East,88,4.0,11.0,78,0.00,,CLR,0.00,0.00,VWS V14.01,2013-02-10 03:23:00,
2013-02-09 21:24:00,34.6,28.5,29.19,ESE,103,2.0,9.0,78,0.00,,CLR,0.00,0.00,VWS V14.01,2013-02-10 03:24:00,
2013-02-09 21:27:00,34.7,28.2,29.19,SSW,192,7.0,9.0,77,0.00,,CLR,0.00,0.00,VWS V14.01,2013-02-10 03:27:00,
2013-02-09 21:29:00,34.8,28.3,29.19,SE,124,6.0,11.0,77,0.00,,CLR,0.00,0.00,VWS V14.01,2013-02-10 03:29:00,
2013-02-09 21:30:00,34.8,28.3,29.19,ESE,117,6.0,6.0,77,0.00,,CLR,0.00,0.00,VWS V14.01,2013-02-10 03:30:00,
2013-02-09 21:35:00,34.8,28.3,29.19,ESE,113,9.0,9.0,77,0.00,,CLR,0.00,0.00,VWS V14.01,2013-02-10 03:35:00,
2013-02-09 21:38:00,34.9,28.4,29.18,ESE,122,4.0,4.0,77,0.00,,CLR,0.00,0.00,VWS V14.01,2013-02-10 03:38:00,
2013-02-09 21:41:00,34.8,28.3,29.18,South,183,4.0,7.0,77,0.00,,CLR,0.00,0.00,VWS V14.01,2013-02-10 03:41:00,
2013-02-09 21:42:00,34.8,28.3,29.18,SE,130,1.0,4.0,77,0.00,,CLR,0.00,0.00,VWS V14.01,2013-02-10 03:42:00,
2013-02-09 21:47:00,34.9,28.4,29.18,SSE,150,1.0,5.0,77,0.00,,CLR,0.00,0.00,VWS V14.01,2013-02-10 03:47:00,
2013-02-09 21:48:00,34.8,28.3,29.18,SE,142,4.0,4.0,77,0.00,,CLR,0.00,0.00,VWS V14.01,2013-02-10 03:48:00,
2013-02-09 21:49:00,34.8,28.3,29.18,SSE,149,6.0,6.0,77,0.00,,CLR,0.00,0.00,VWS V14.01,2013-02-10 03:49:00,
2013-02-09 21:54:00,34.8,28.3,29.18,ENE,71,1.0,5.0,77,0.00,,CLR,0.00,0.00,VWS V14.01,2013-02-10 03:54:00,
2013-02-09 21:55:00,34.8,28.3,29.17,ESE,111,0.0,5.0,77,0.00,,CLR,0.00,0.00,VWS V14.01,2013-02-10 03:55:00,
2013-02-09 21:56:00,34.8,28.3,29.17,SSE,155,2.0,6.0,77,0.00,,CLR,0.00,0.00,VWS V14.01,2013-02-10 03:56:00,
2013-02-09 21:57:00,34.8,28.3,29.17,SSE,164,2.0,4.0,77,0.00,,CLR,0.00,0.00,VWS V14.01,2013-02-10 03:57:00,
2013-02-09 21:59:00,34.8,28.3,29.17,South,182,2.0,8.0,77,0.00,,CLR,0.00,0.00,VWS V14.01,2013-02-10 03:59:00,
2013-02-09 22:01:00,34.8,28.3,29.17,South,180,3.0,7.0,77,0.00,,CLR,0.00,0.00,VWS V14.01,2013-02-10 04:01:00,
2013-02-09 22:05:00,34.8,28.3,29.17,SE,138,1.0,9.0,77,0.00,,CLR,0.00,0.00,VWS V14.01,2013-02-10 04:05:00,
2013-02-09 22:07:00,34.8,28.3,29.17,SE,134,0.0,4.0,77,0.00,,CLR,0.00,0.00,VWS V14.01,2013-02-10 04:07:00,
2013-02-09 22:11:00,34.8,28.3,29.17,ESE,119,4.0,6.0,77,0.00,,CLR,0.00,0.00,VWS V14.01,2013-02-10 04:11:00,
2013-02-09 22:12:00,34.8,28.3,29.17,ESE,118,4.0,7.0,77,0.00,,CLR,0.00,0.00,VWS V14.01,2013-02-10 04:12:00,
2013-02-09 22:13:00,34.8,28.3,29.17,SE,129,0.0,4.0,77,0.00,,CLR,0.00,0.00,VWS V14.01,2013-02-10 04:13:00,
2013-02-09 22:14:00,34.8,28.3,29.17,ESE,123,2.0,4.0,77,0.00,,CLR,0.00,0.00,VWS V14.01,2013-02-10 04:14:00,
2013-02-09 22:19:00,34.7,28.2,29.17,East,90,7.0,8.0,77,0.00,,CLR,0.00,0.00,VWS V14.01,2013-02-10 04:19:00,
2013-02-09 22:24:00,34.6,28.5,29.16,SE,124,2.0,4.0,78,0.00,,CLR,0.00,0.00,VWS V14.01,2013-02-10 04:24:00,
2013-02-09 22:26:00,34.5,28.4,29.16,ESE,119,5.0,5.0,78,0.00,,CLR,0.00,0.00,VWS V14.01,2013-02-10 04:26:00,
2013-02-09 22:27:00,34.5,28.4,29.16,ESE,119,0.0,5.0,78,0.00,,CLR,0.00,0.00,VWS V14.01,2013-02-10 04:27:00,
2013-02-09 22:29:00,34.4,28.3,29.16,South,178,2.0,4.0,78,0.00,,CLR,0.00,0.00,VWS V14.01,2013-02-10 04:29:00,
2013-02-09 22:33:00,34.4,28.3,29.17,SE,129,2.0,6.0,78,0.00,,CLR,0.00,0.00,VWS V14.01,2013-02-10 04:33:00,
2013-02-09 22:35:00,34.4,28.3,29.16,ESE,118,4.0,8.0,78,0.00,,CLR,0.00,0.00,VWS V14.01,2013-02-10 04:35:00,
2013-02-09 22:38:00,34.4,28.3,29.16,SE,126,0.0,11.0,78,0.00,,CLR,0.00,0.00,VWS V14.01,2013-02-10 04:38:00,
2013-02-09 22:40:00,34.4,28.3,29.16,SE,141,2.0,7.0,78,0.00,,CLR,0.00,0.00,VWS V14.01,2013-02-10 04:40:00,
2013-02-09 22:41:00,34.4,28.3,29.16,ESE,109,5.0,7.0,78,0.00,,CLR,0.00,0.00,VWS V14.01,2013-02-10 04:41:00,
2013-02-09 22:46:00,34.3,28.5,29.16,ESE,106,2.0,6.0,79,0.00,,CLR,0.00,0.00,VWS V14.01,2013-02-10 04:46:00,
2013-02-09 22:47:00,34.3,28.5,29.16,SE,138,5.0,6.0,79,0.00,,CLR,0.00,0.00,VWS V14.01,2013-02-10 04:47:00,
2013-02-09 22:49:00,34.4,28.6,29.16,ESE,118,0.0,8.0,79,0.00,,CLR,0.00,0.00,VWS V14.01,2013-02-10 04:49:00,
2013-02-09 22:50:00,34.4,28.6,29.16,ESE,119,1.0,5.0,79,0.00,,CLR,0.00,0.00,VWS V14.01,2013-02-10 04:50:00,
2013-02-09 22:52:00,34.3,28.5,29.16,SE,134,5.0,6.0,79,0.00,,CLR,0.00,0.00,VWS V14.01,2013-02-10 04:52:00,
2013-02-09 22:55:00,34.3,28.5,29.16,SE,144,0.0,4.0,79,0.00,,CLR,0.00,0.00,VWS V14.01,2013-02-10 04:55:00,
2013-02-09 22:58:00,34.2,28.4,29.16,SSE,147,1.0,5.0,79,0.00,,CLR,0.00,0.00,VWS V14.01,2013-02-10 04:58:00,
2013-02-09 23:00:00,34.2,28.4,29.16,ESE,120,1.0,6.0,79,0.00,,CLR,0.00,0.00,VWS V14.01,2013-02-10 05:00:00,
2013-02-09 23:01:00,34.2,28.4,29.16,SSE,147,5.0,7.0,79,0.00,,CLR,0.00,0.00,VWS V14.01,2013-02-10 05:01:00,
2013-02-09 23:02:00,34.2,28.4,29.16,ESE,122,5.0,5.0,79,0.00,,CLR,0.00,0.00,VWS V14.01,2013-02-10 05:02:00,
2013-02-09 23:03:00,34.2,28.4,29.15,SE,128,2.0,8.0,79,0.00,,CLR,0.00,0.00,VWS V14.01,2013-02-10 05:03:00,
2013-02-09 23:06:00,34.2,28.4,29.15,ESE,110,4.0,4.0,79,0.00,,CLR,0.00,0.00,VWS V14.01,2013-02-10 05:06:00,
2013-02-09 23:07:00,34.2,28.4,29.15,ESE,113,1.0,7.0,79,0.00,,CLR,0.00,0.00,VWS V14.01,2013-02-10 05:07:00,
2013-02-09 23:11:00,34.2,28.4,29.15,SSW,202,2.0,5.0,79,0.00,,CLR,0.00,0.00,VWS V14.01,2013-02-10 05:11:00,
2013-02-09 23:12:00,34.2,28.4,29.15,SSW,197,1.0,5.0,79,0.00,,CLR,0.00,0.00,VWS V14.01,2013-02-10 05:12:00,
2013-02-09 23:15:00,34.3,28.5,29.15,ESE,117,4.0,8.0,79,0.00,,CLR,0.00,0.00,VWS V14.01,2013-02-10 05:15:00,
2013-02-09 23:17:00,34.4,28.6,29.15,ESE,117,4.0,6.0,79,0.00,,CLR,0.00,0.00,VWS V14.01,2013-02-10 05:17:00,
2013-02-09 23:18:00,34.4,28.6,29.15,SE,146,7.0,7.0,79,0.00,,CLR,0.00,0.00,VWS V14.01,2013-02-10 05:18:00,
2013-02-09 23:22:00,34.4,28.6,29.15,ESE,109,1.0,5.0,79,0.00,,CLR,0.00,0.00,VWS V14.01,2013-02-10 05:22:00,
2013-02-09 23:24:00,34.4,28.3,29.15,South,188,0.0,5.0,78,0.00,,CLR,0.00,0.00,VWS V14.01,2013-02-10 05:24:00,
2013-02-09 23:29:00,34.4,28.3,29.15,SSW,196,3.0,4.0,78,0.00,,CLR,0.00,0.00,VWS V14.01,2013-02-10 05:29:00,
2013-02-09 23:30:00,34.4,28.3,29.15,ESE,122,2.0,4.0,78,0.00,,CLR,0.00,0.00,VWS V14.01,2013-02-10 05:30:00,
2013-02-09 23:32:00,34.4,28.3,29.15,SE,140,6.0,7.0,78,0.00,,CLR,0.00,0.00,VWS V14.01,2013-02-10 05:32:00,
2013-02-09 23:34:00,34.4,28.3,29.15,South,184,3.0,6.0,78,0.00,,CLR,0.00,0.00,VWS V14.01,2013-02-10 05:34:00,
2013-02-09 23:35:00,34.4,28.3,29.15,ESE,121,2.0,8.0,78,0.00,,CLR,0.00,0.00,VWS V14.01,2013-02-10 05:35:00,
2013-02-09 23:37:00,34.4,28.3,29.15,SW,232,2.0,6.0,78,0.00,,CLR,0.00,0.00,VWS V14.01,2013-02-10 05:37:00,
2013-02-09 23:40:00,34.4,28.3,29.15,East,94,0.0,7.0,78,0.00,,CLR,0.00,0.00,VWS V14.01,2013-02-10 05:40:00,
2013-02-09 23:42:00,34.5,28.4,29.15,SE,125,0.0,12.0,78,0.00,,CLR,0.00,0.00,VWS V14.01,2013-02-10 05:42:00,
2013-02-09 23:45:00,34.5,28.4,29.15,SE,134,0.0,4.0,78,0.00,,CLR,0.00,0.00,VWS V14.01,2013-02-10 05:45:00,
2013-02-09 23:46:00,34.5,28.4,29.15,SSE,167,6.0,6.0,78,0.00,,CLR,0.00,0.00,VWS V14.01,2013-02-10 05:46:00,
2013-02-09 23:49:00,34.6,28.5,29.15,ESE,105,0.0,4.0,78,0.00,,CLR,0.00,0.00,VWS V14.01,2013-02-10 05:49:00,
2013-02-09 23:51:00,34.6,28.5,29.15,ESE,102,6.0,7.0,78,0.00,,CLR,0.00,0.00,VWS V14.01,2013-02-10 05:51:00,
2013-02-09 23:54:00,34.7,28.5,29.15,SE,128,5.0,6.0,78,0.00,,CLR,0.00,0.00,VWS V14.01,2013-02-10 05:54:00,
2013-02-09 23:55:00,34.7,28.2,29.15,SE,128,6.0,7.0,77,0.00,,CLR,0.00,0.00,VWS V14.01,2013-02-10 05:55:00,
2013-02-09 23:56:00,34.7,28.2,29.15,SE,138,1.0,6.0,77,0.00,,CLR,0.00,0.00,VWS V14.01,2013-02-10 05:56:00,
2013-02-09 23:58:00,34.7,28.2,29.15,SSE,156,9.0,11.0,77,0.00,,CLR,0.00,0.00,VWS V14.01,2013-02-10 05:58:00,